Data for 12/22/2008

Time Sea-Level Adjusted Pressure Absolute Pressure Temperature Relative Humidity Dew Point Precipitation   
(mb) (inHg) (mb) (inHg) (C) (F) (%) (C) (F) (mm) (in)
00:01 1008 29.77 837 24.72 -14.6 5.8 83 -16.8 1.7 0
00:02 1008 29.77 837 24.72 -14.6 5.7 83 -16.9 1.6 0
00:03 1008 29.77 837 24.72 -14.6 5.7 83 -16.9 1.6 0
00:04 1008 29.77 837 24.72 -14.6 5.6 84 -16.8 1.7 0
00:05 1008 29.77 837 24.72 -14.6 5.7 84 -16.8 1.8 0
00:06 1008 29.77 837 24.72 -14.6 5.7 84 -16.8 1.8 0
00:07 1008 29.77 837 24.72 -14.6 5.8 84 -16.7 1.9 0
00:08 1008 29.77 837 24.72 -14.6 5.8 84 -16.7 1.9 0
00:09 1008 29.77 837 24.72 -14.6 5.8 84 -16.8 1.8 0
00:10 1008 29.77 837 24.72 -14.5 5.8 84 -16.7 1.9 0
00:11 1008 29.77 837 24.72 -14.5 5.8 84 -16.7 1.9 0
00:12 1008 29.77 837 24.72 -14.5 5.9 84 -16.7 2 0
00:13 1008 29.77 837 24.72 -14.5 5.9 84 -16.6 2.1 0
00:14 1008 29.77 837 24.72 -14.4 6.1 84 -16.6 2.2 0
00:15 1008 29.77 837 24.72 -14.4 6.1 84 -16.6 2.1 0
00:16 1008 29.77 837 24.72 -14.4 6.1 84 -16.6 2.1 0
00:17 1008 29.77 837 24.72 -14.3 6.2 84 -16.5 2.2 0
00:18 1008 29.77 837 24.72 -14.3 6.3 83 -16.5 2.3 0
00:19 1008 29.77 837 24.72 -14.2 6.4 84 -16.5 2.4 0
00:20 1008 29.77 837 24.72 -14.2 6.4 83 -16.5 2.4 0
00:21 1008 29.77 837 24.72 -14.2 6.5 83 -16.5 2.3 0
00:22 1008 29.77 837 24.72 -14.1 6.6 82 -16.5 2.3 0
00:23 1008 29.77 837 24.72 -14.1 6.6 82 -16.5 2.2 0
00:24 1007 29.74 837 24.72 -14.1 6.6 82 -16.5 2.3 0
00:25 1007 29.74 837 24.72 -14.1 6.6 82 -16.5 2.3 0
00:26 1007 29.74 837 24.72 -14.1 6.6 83 -16.5 2.4 0
00:27 1007 29.74 837 24.72 -14.1 6.6 83 -16.5 2.3 0
00:28 1007 29.74 837 24.72 -14.1 6.7 83 -16.4 2.4 0
00:29 1007 29.74 837 24.72 -14.1 6.7 83 -16.4 2.5 0
00:30 1007 29.74 837 24.72 -14 6.7 83 -16.4 2.5 0
00:31 1007 29.74 836 24.69 -14 6.8 83 -16.4 2.5 0
00:32 1007 29.74 836 24.69 -14 6.8 83 -16.4 2.6 0
00:33 1007 29.74 836 24.69 -14 6.8 83 -16.3 2.6 0
00:34 1007 29.74 836 24.69 -14 6.9 82 -16.3 2.6 0
00:35 1007 29.74 836 24.69 -13.9 6.9 82 -16.3 2.6 0
00:36 1007 29.74 836 24.69 -14 6.9 82 -16.3 2.6 0
00:37 1007 29.74 836 24.69 -13.9 6.9 83 -16.3 2.7 0
00:38 1007 29.74 836 24.69 -13.9 7 83 -16.2 2.8 0
00:39 1007 29.74 836 24.69 -13.9 7 83 -16.2 2.9 0
00:40 1007 29.74 836 24.69 -13.9 7 83 -16.2 2.8 0
00:41 1007 29.74 836 24.69 -13.8 7.1 83 -16.2 2.9 0
00:42 1007 29.74 836 24.69 -13.8 7.1 82 -16.2 2.8 0
00:43 1007 29.74 836 24.69 -13.8 7.1 82 -16.2 2.9 0
00:44 1007 29.74 836 24.69 -13.8 7.2 83 -16.1 2.9 0
00:45 1007 29.74 836 24.69 -13.8 7.2 83 -16.1 3 0
00:46 1007 29.74 836 24.69 -13.8 7.2 82 -16.2 2.9 0
00:47 1007 29.74 836 24.69 -13.8 7.3 83 -16.1 3 0
00:48 1007 29.74 836 24.69 -13.7 7.3 83 -16.1 3.1 0
00:49 1007 29.74 836 24.69 -13.7 7.3 82 -16.1 3 0
00:50 1007 29.74 836 24.69 -13.7 7.4 82 -16.1 3 0
00:51 1007 29.74 836 24.69 -13.7 7.4 82 -16.1 3.1 0
00:52 1007 29.74 836 24.69 -13.7 7.4 82 -16.1 3.1 0
00:53 1007 29.74 836 24.69 -13.6 7.4 82 -16 3.1 0
00:54 1007 29.74 836 24.69 -13.6 7.5 82 -16 3.2 0
00:55 1007 29.74 836 24.69 -13.6 7.5 82 -16 3.2 0
00:56 1007 29.74 836 24.69 -13.6 7.5 83 -16 3.2 0
00:57 1007 29.74 836 24.69 -13.6 7.5 83 -16 3.2 0
00:58 1007 29.74 836 24.69 -13.6 7.5 83 -15.9 3.3 0
00:59 1007 29.74 836 24.69 -13.6 7.5 83 -15.9 3.4 0
01:00 1007 29.74 836 24.69 -13.6 7.5 83 -15.9 3.4 0
01:01 1007 29.74 836 24.69 -13.6 7.6 83 -15.9 3.4 0
01:02 1007 29.74 836 24.69 -13.5 7.6 83 -15.8 3.6 0
01:03 1007 29.74 836 24.69 -13.5 7.7 83 -15.8 3.6 0
01:04 1007 29.74 836 24.69 -13.5 7.8 83 -15.7 3.7 0
01:05 1007 29.74 836 24.69 -13.4 7.8 83 -15.7 3.8 0
01:06 1007 29.74 836 24.69 -13.4 7.9 83 -15.7 3.8 0
01:07 1007 29.74 836 24.69 -13.4 8 83 -15.7 3.8 0
01:08 1007 29.74 836 24.69 -13.3 8 83 -15.7 3.8 0
01:09 1007 29.74 836 24.69 -13.3 8.1 82 -15.7 3.8 0
01:10 1007 29.74 836 24.69 -13.3 8 83 -15.7 3.8 0
01:11 1007 29.74 836 24.69 -13.3 8.1 83 -15.6 3.8 0
01:12 1006 29.71 836 24.69 -13.3 8.2 83 -15.6 4 0
01:13 1006 29.71 836 24.69 -13.2 8.2 83 -15.6 4 0
01:14 1006 29.71 836 24.69 -13.2 8.3 82 -15.6 3.9 0
01:15 1006 29.71 836 24.69 -13.2 8.3 82 -15.6 4 0
01:16 1006 29.71 836 24.69 -13.1 8.3 82 -15.5 4 0
01:17 1006 29.71 836 24.69 -13.1 8.4 82 -15.5 4 0
01:18 1006 29.71 836 24.69 -13.1 8.4 82 -15.5 4.1 0
01:19 1006 29.71 836 24.69 -13.1 8.5 82 -15.5 4.2 0
01:20 1006 29.71 836 24.69 -13 8.6 83 -15.4 4.3 0
01:21 1006 29.71 835 24.66 -13 8.7 83 -15.3 4.4 0
01:22 1006 29.71 835 24.66 -12.9 8.7 83 -15.3 4.5 0
01:23 1006 29.71 835 24.66 -12.9 8.8 83 -15.2 4.6 0
01:24 1006 29.71 835 24.66 -12.9 8.8 83 -15.2 4.7 0
01:25 1006 29.71 835 24.66 -12.9 8.9 83 -15.1 4.7 0
01:26 1006 29.71 835 24.66 -12.8 9 83 -15.2 4.7 0
01:27 1006 29.71 835 24.66 -12.8 9 83 -15.1 4.8 0
01:28 1006 29.71 835 24.66 -12.8 9 82 -15.2 4.7 0
01:29 1006 29.71 835 24.66 -12.8 9 83 -15.1 4.8 0
01:30 1006 29.71 835 24.66 -12.8 9 83 -15.2 4.7 0
01:31 1006 29.71 835 24.66 -12.8 8.9 82 -15.3 4.5 0
01:32 1006 29.71 835 24.66 -12.9 8.8 83 -15.2 4.6 0
01:33 1006 29.71 835 24.66 -12.8 8.9 83 -15.2 4.6 0
01:34 1006 29.71 835 24.66 -12.8 8.9 83 -15.2 4.7 0
01:35 1006 29.71 835 24.66 -12.8 8.9 83 -15.2 4.7 0
01:36 1006 29.71 835 24.66 -12.8 8.9 83 -15.1 4.8 0
01:37 1006 29.71 835 24.66 -12.8 9 83 -15.1 4.9 0
01:38 1006 29.71 835 24.66 -12.8 9 83 -15 4.9 0
01:39 1006 29.71 835 24.66 -12.7 9.1 83 -15 5.1 0
01:40 1006 29.71 835 24.66 -12.7 9.1 83 -15.1 4.9 0
01:41 1006 29.71 835 24.66 -12.7 9.2 83 -15 4.9 0
01:42 1006 29.71 835 24.66 -12.7 9.2 82 -15.1 4.9 0
01:43 1006 29.71 835 24.66 -12.6 9.3 82 -15 4.9 0
01:44 1006 29.71 835 24.66 -12.6 9.4 82 -15 4.9 0
01:45 1006 29.71 835 24.66 -12.6 9.3 82 -15 5 0
01:46 1006 29.71 835 24.66 -12.6 9.4 82 -15 4.9 0
01:47 1006 29.71 835 24.66 -12.6 9.4 82 -15 5.1 0
01:48 1006 29.71 835 24.66 -12.5 9.4 83 -14.9 5.2 0
01:49 1006 29.71 835 24.66 -12.6 9.3 82 -15.1 4.8 0
01:50 1006 29.71 835 24.66 -12.8 9 81 -15.3 4.4 0
01:51 1006 29.71 835 24.66 -13 8.7 82 -15.4 4.3 0
01:52 1006 29.71 835 24.66 -13.2 8.3 82 -15.7 3.7 0
01:53 1006 29.71 835 24.66 -13.4 7.9 82 -15.9 3.4 0
01:54 1006 29.71 835 24.66 -13.6 7.5 82 -16 3.2 0
01:55 1006 29.71 835 24.66 -13.7 7.3 83 -16 3.2 0
01:56 1006 29.71 835 24.66 -13.8 7.1 83 -16.1 3.1 0
01:57 1006 29.71 835 24.66 -13.9 7 83 -16.2 2.9 0
01:58 1006 29.71 835 24.66 -14 6.9 84 -16.2 2.9 0
01:59 1006 29.71 835 24.66 -14 6.8 84 -16.1 3 0
02:00 1006 29.71 835 24.66 -14 6.7 84 -16.2 2.9 0
02:01 1006 29.71 835 24.66 -14.1 6.7 84 -16.2 2.8 0
02:02 1006 29.71 835 24.66 -14.2 6.5 84 -16.3 2.7 0
02:03 1006 29.71 835 24.66 -14.2 6.5 84 -16.3 2.6 0
02:04 1006 29.71 835 24.66 -14.2 6.4 84 -16.3 2.6 0
02:05 1006 29.71 835 24.66 -14.2 6.4 84 -16.3 2.6 0
02:06 1006 29.71 835 24.66 -14.2 6.4 84 -16.3 2.6 0
02:07 1006 29.71 835 24.66 -14.2 6.4 85 -16.3 2.7 0
02:08 1006 29.71 835 24.66 -14.2 6.4 85 -16.3 2.6 0
02:09 1006 29.71 835 24.66 -14.2 6.4 85 -16.3 2.7 0
02:10 1006 29.71 835 24.66 -14.2 6.4 85 -16.3 2.6 0
02:11 1006 29.71 835 24.66 -14.3 6.3 85 -16.3 2.6 0
02:12 1006 29.71 835 24.66 -14.2 6.4 85 -16.2 2.8 0
02:13 1006 29.71 835 24.66 -14.2 6.5 85 -16.2 2.8 0
02:14 1006 29.71 835 24.66 -14.2 6.5 85 -16.2 2.8 0
02:15 1006 29.71 835 24.66 -14.2 6.5 85 -16.2 2.8 0
02:16 1005 29.68 835 24.66 -14.2 6.5 85 -16.2 2.8 0
02:17 1005 29.68 835 24.66 -14.2 6.5 84 -16.2 2.8 0
02:18 1005 29.68 834 24.63 -14.2 6.5 84 -16.3 2.7 0
02:19 1005 29.68 834 24.63 -14.2 6.5 85 -16.3 2.7 0
02:20 1005 29.68 834 24.63 -14.2 6.4 85 -16.2 2.8 0
02:21 1005 29.68 834 24.63 -14.2 6.4 85 -16.2 2.8 0
02:22 1005 29.68 834 24.63 -14.2 6.5 85 -16.2 2.8 0
02:23 1005 29.68 834 24.63 -14.2 6.5 85 -16.2 2.8 0
02:24 1005 29.68 834 24.63 -14.2 6.4 85 -16.2 2.8 0
02:25 1005 29.68 834 24.63 -14.2 6.5 85 -16.1 3 0
02:26 1005 29.68 834 24.63 -14.1 6.6 85 -16.1 3 0
02:27 1005 29.68 834 24.63 -14.1 6.6 86 -16 3.1 0
02:28 1005 29.68 834 24.63 -14.1 6.6 86 -16 3.2 0
02:29 1005 29.68 834 24.63 -14.1 6.7 85 -16 3.2 0
02:30 1005 29.68 834 24.63 -14 6.8 85 -16 3.2 0
02:31 1005 29.68 834 24.63 -14 6.7 85 -16 3.1 0
02:32 1005 29.68 834 24.63 -14 6.8 85 -16 3.2 0
02:33 1005 29.68 834 24.63 -14 6.8 85 -16 3.3 0
02:34 1005 29.68 834 24.63 -14 6.9 85 -15.9 3.3 0
02:35 1005 29.68 834 24.63 -13.9 6.9 85 -15.9 3.3 0
02:36 1005 29.68 834 24.63 -14 6.9 85 -16 3.3 0
02:37 1005 29.68 834 24.63 -13.9 6.9 85 -15.9 3.4 0
02:38 1005 29.68 834 24.63 -13.9 7 86 -15.8 3.5 0
02:39 1005 29.68 834 24.63 -13.9 7 85 -15.8 3.5 0
02:40 1005 29.68 834 24.63 -13.8 7.1 85 -15.8 3.6 0
02:41 1005 29.68 834 24.63 -13.9 7.1 85 -15.8 3.5 0
02:42 1005 29.68 834 24.63 -13.8 7.1 85 -15.8 3.6 0
02:43 1005 29.68 834 24.63 -13.8 7.1 85 -15.8 3.6 0
02:44 1005 29.68 834 24.63 -13.8 7.2 85 -15.7 3.7 0
02:45 1005 29.68 834 24.63 -13.8 7.3 86 -15.7 3.8 0
02:46 1005 29.68 834 24.63 -13.7 7.3 86 -15.6 3.9 0
02:47 1005 29.68 834 24.63 -13.7 7.4 86 -15.6 4 0
02:48 1005 29.68 834 24.63 -13.7 7.4 86 -15.5 4.1 0
02:49 1005 29.68 834 24.63 -13.6 7.5 86 -15.5 4 0
02:50 1005 29.68 834 24.63 -13.6 7.6 86 -15.5 4.1 0
02:51 1005 29.68 834 24.63 -13.6 7.6 86 -15.4 4.2 0
02:52 1005 29.68 834 24.63 -13.5 7.8 86 -15.3 4.4 0
02:53 1005 29.68 834 24.63 -13.5 7.8 86 -15.3 4.4 0
02:54 1005 29.68 834 24.63 -13.4 7.9 86 -15.3 4.5 0
02:55 1005 29.68 834 24.63 -13.3 8 86 -15.2 4.6 0
02:56 1005 29.68 834 24.63 -13.3 8 86 -15.2 4.6 0
02:57 1005 29.68 834 24.63 -13.3 8.1 86 -15.2 4.7 0
02:58 1005 29.68 834 24.63 -13.3 8.1 86 -15.2 4.6 0
02:59 1005 29.68 834 24.63 -13.2 8.2 85 -15.2 4.7 0
03:00 1005 29.68 834 24.63 -13.2 8.2 86 -15.2 4.7 0
03:01 1005 29.68 834 24.63 -13.2 8.3 86 -15.1 4.8 0
03:02 1005 29.68 834 24.63 -13.2 8.3 86 -15.1 4.8 0
03:03 1005 29.68 834 24.63 -13.1 8.4 85 -15.1 4.9 0
03:04 1005 29.68 834 24.63 -13.1 8.4 85 -15.1 4.8 0
03:05 1005 29.68 834 24.63 -13.1 8.4 85 -15.1 4.8 0
03:06 1005 29.68 834 24.63 -13.1 8.5 85 -15.1 4.9 0
03:07 1005 29.68 834 24.63 -13.1 8.5 85 -15.2 4.7 0
03:08 1005 29.68 834 24.63 -13.1 8.4 85 -15.2 4.7 0
03:09 1005 29.68 834 24.63 -13.1 8.4 85 -15.1 4.8 0
03:10 1005 29.68 834 24.63 -13.1 8.4 85 -15.1 4.8 0
03:11 1005 29.68 834 24.63 -13.1 8.4 85 -15.1 4.7 0
03:12 1005 29.68 834 24.63 -13.1 8.4 85 -15.2 4.7 0
03:13 1005 29.68 834 24.63 -13.2 8.3 84 -15.3 4.5 0
03:14 1005 29.68 834 24.63 -13.2 8.2 84 -15.3 4.4 0
03:15 1005 29.68 834 24.63 -13.3 8.1 84 -15.4 4.3 0
03:16 1005 29.68 834 24.63 -13.3 8.1 85 -15.4 4.4 0
03:17 1005 29.68 834 24.63 -13.3 8.1 84 -15.4 4.3 0
03:18 1005 29.68 834 24.63 -13.3 8.1 85 -15.4 4.3 0
03:19 1005 29.68 834 24.63 -13.3 8 84 -15.4 4.2 0
03:20 1004 29.65 834 24.63 -13.4 7.9 84 -15.5 4.1 0
03:21 1004 29.65 834 24.63 -13.4 7.9 84 -15.5 4.1 0
03:22 1004 29.65 834 24.63 -13.4 7.9 84 -15.5 4 0
03:23 1004 29.65 834 24.63 -13.4 7.8 84 -15.5 4 0
03:24 1004 29.65 834 24.63 -13.5 7.8 85 -15.5 4 0
03:25 1004 29.65 834 24.63 -13.5 7.8 84 -15.6 4 0
03:26 1004 29.65 834 24.63 -13.5 7.7 84 -15.6 3.9 0
03:27 1004 29.65 834 24.63 -13.5 7.7 85 -15.5 4 0
03:28 1004 29.65 834 24.63 -13.5 7.6 85 -15.6 3.9 0
03:29 1004 29.65 833 24.6 -13.6 7.5 84 -15.7 3.7 0
03:30 1004 29.65 833 24.6 -13.7 7.4 85 -15.7 3.7 0
03:31 1004 29.65 833 24.6 -13.7 7.3 85 -15.8 3.6 0
03:32 1004 29.65 833 24.6 -13.8 7.2 85 -15.8 3.5 0
03:33 1004 29.65 833 24.6 -13.8 7.1 85 -15.9 3.4 0
03:34 1004 29.65 833 24.6 -13.9 7.1 85 -15.9 3.3 0
03:35 1004 29.65 833 24.6 -13.9 7 85 -15.9 3.3 0
03:36 1004 29.65 833 24.6 -14 6.9 85 -16 3.2 0
03:37 1004 29.65 833 24.6 -14 6.8 85 -16 3.2 0
03:38 1004 29.65 833 24.6 -14 6.8 85 -15.9 3.3 0
03:39 1004 29.65 833 24.6 -14 6.8 85 -16 3.2 0
03:40 1004 29.65 833 24.6 -14 6.8 85 -16 3.2 0
03:41 1004 29.65 833 24.6 -14 6.7 85 -16 3.2 0
03:42 1004 29.65 833 24.6 -14.1 6.6 85 -16.1 3.1 0
03:43 1004 29.65 833 24.6 -14.1 6.6 85 -16.1 3 0
03:44 1004 29.65 833 24.6 -14.2 6.5 85 -16.1 3 0
03:45 1004 29.65 833 24.6 -14.2 6.5 86 -16.1 3 0
03:46 1004 29.65 833 24.6 -14.2 6.4 85 -16.2 2.8 0
03:47 1004 29.65 833 24.6 -14.3 6.3 85 -16.2 2.8 0
03:48 1004 29.65 833 24.6 -14.3 6.3 85 -16.2 2.8 0
03:49 1004 29.65 833 24.6 -14.3 6.2 86 -16.2 2.8 0
03:50 1004 29.65 833 24.6 -14.3 6.2 85 -16.3 2.6 0
03:51 1004 29.65 833 24.6 -14.4 6.1 86 -16.3 2.6 0
03:52 1004 29.65 833 24.6 -14.4 6 86 -16.3 2.7 0
03:53 1004 29.65 833 24.6 -14.4 6 86 -16.3 2.7 0
03:54 1004 29.65 833 24.6 -14.4 6 86 -16.3 2.6 0
03:55 1004 29.65 833 24.6 -14.4 6 86 -16.3 2.7 0
03:56 1004 29.65 833 24.6 -14.5 5.9 86 -16.4 2.5 0
03:57 1004 29.65 833 24.6 -14.5 5.9 86 -16.3 2.7 0
03:58 1004 29.65 833 24.6 -14.5 6 86 -16.3 2.7 0
03:59 1004 29.65 833 24.6 -14.4 6 86 -16.3 2.7 0
04:00 1004 29.65 833 24.6 -14.5 6 86 -16.3 2.6 0
04:01 1004 29.65 833 24.6 -14.4 6 86 -16.2 2.8 0
04:02 1004 29.65 833 24.6 -14.4 6 86 -16.3 2.7 0
04:03 1004 29.65 833 24.6 -14.4 6.1 86 -16.2 2.8 0
04:04 1004 29.65 833 24.6 -14.4 6.1 86 -16.2 2.9 0
04:05 1004 29.65 833 24.6 -14.4 6.2 86 -16.2 2.9 0
04:06 1004 29.65 833 24.6 -14.4 6.1 86 -16.2 2.8 0
04:07 1004 29.65 833 24.6 -14.4 6.2 86 -16.2 2.9 0
04:08 1004 29.65 833 24.6 -14.3 6.2 87 -16.1 3 0
04:09 1004 29.65 833 24.6 -14.3 6.3 87 -16 3.2 0
04:10 1004 29.65 833 24.6 -14.2 6.4 87 -16 3.2 0
04:11 1004 29.65 833 24.6 -14.2 6.4 86 -16.1 3.1 0
04:12 1004 29.65 833 24.6 -14.2 6.5 86 -16 3.2 0
04:13 1004 29.65 833 24.6 -14.2 6.5 87 -16 3.3 0
04:14 1004 29.65 833 24.6 -14.1 6.5 87 -15.9 3.4 0
04:15 1004 29.65 833 24.6 -14.1 6.6 86 -15.9 3.3 0
04:16 1004 29.65 833 24.6 -14.1 6.7 86 -15.9 3.4 0
04:17 1004 29.65 833 24.6 -14.1 6.7 86 -15.8 3.5 0
04:18 1004 29.65 833 24.6 -14 6.7 86 -15.9 3.3 0
04:19 1004 29.65 833 24.6 -14 6.7 86 -15.9 3.3 0
04:20 1004 29.65 833 24.6 -14 6.8 86 -15.9 3.4 0
04:21 1004 29.65 833 24.6 -14 6.8 86 -15.9 3.3 0
04:22 1004 29.65 833 24.6 -14 6.8 86 -15.9 3.4 0
04:23 1004 29.65 833 24.6 -14 6.8 86 -15.9 3.4 0
04:24 1004 29.65 833 24.6 -14 6.8 86 -15.9 3.4 0
04:25 1004 29.65 833 24.6 -14 6.8 86 -15.8 3.5 0
04:26 1004 29.65 833 24.6 -14 6.9 86 -15.8 3.5 0
04:27 1004 29.65 833 24.6 -14 6.9 86 -15.8 3.5 0
04:28 1004 29.65 833 24.6 -13.9 6.9 86 -15.8 3.6 0
04:29 1004 29.65 833 24.6 -13.9 6.9 86 -15.8 3.6 0
04:30 1004 29.65 833 24.6 -13.9 7 86 -15.8 3.6 0
04:31 1004 29.65 833 24.6 -13.9 7 86 -15.7 3.7 0
04:32 1004 29.65 833 24.6 -13.9 7.1 86 -15.7 3.7 0
04:33 1004 29.65 833 24.6 -13.8 7.1 86 -15.6 3.8 0
04:34 1004 29.65 833 24.6 -13.8 7.2 86 -15.7 3.8 0
04:35 1004 29.65 833 24.6 -13.8 7.2 86 -15.6 3.9 0
04:36 1004 29.65 833 24.6 -13.7 7.3 86 -15.6 3.9 0
04:37 1004 29.65 833 24.6 -13.7 7.4 86 -15.5 4 0
04:38 1004 29.65 833 24.6 -13.7 7.4 86 -15.5 4.1 0
04:39 1004 29.65 833 24.6 -13.6 7.4 86 -15.5 4.1 0
04:40 1004 29.65 833 24.6 -13.6 7.5 86 -15.5 4.2 0
04:41 1004 29.65 833 24.6 -13.6 7.6 86 -15.5 4.2 0
04:42 1004 29.65 833 24.6 -13.6 7.6 86 -15.5 4.2 0
04:43 1004 29.65 833 24.6 -13.6 7.6 86 -15.4 4.3 0
04:44 1004 29.65 833 24.6 -13.5 7.7 86 -15.4 4.2 0
04:45 1004 29.65 833 24.6 -13.5 7.7 86 -15.4 4.3 0
04:46 1004 29.65 833 24.6 -13.5 7.7 86 -15.4 4.3 0
04:47 1004 29.65 833 24.6 -13.5 7.8 86 -15.3 4.4 0
04:48 1004 29.65 833 24.6 -13.4 7.8 86 -15.3 4.4 0
04:49 1004 29.65 833 24.6 -13.4 7.8 86 -15.4 4.4 0
04:50 1004 29.65 833 24.6 -13.5 7.8 86 -15.4 4.3 0
04:51 1004 29.65 833 24.6 -13.5 7.8 86 -15.4 4.3 0
04:52 1004 29.65 833 24.6 -13.5 7.7 86 -15.3 4.4 0
04:53 1004 29.65 833 24.6 -13.5 7.8 86 -15.3 4.4 0
04:54 1003 29.62 833 24.6 -13.5 7.8 86 -15.4 4.3 0
04:55 1003 29.62 833 24.6 -13.5 7.8 86 -15.3 4.4 0
04:56 1003 29.62 833 24.6 -13.5 7.8 86 -15.3 4.4 0
04:57 1003 29.62 833 24.6 -13.5 7.8 86 -15.3 4.4 0
04:58 1003 29.62 832 24.57 -13.4 7.8 86 -15.3 4.5 0
04:59 1003 29.62 832 24.57 -13.4 7.8 86 -15.3 4.4 0
05:00 1003 29.62 832 24.57 -13.4 7.8 86 -15.3 4.5 0
05:01 1003 29.62 832 24.57 -13.4 7.8 86 -15.3 4.5 0
05:02 1003 29.62 832 24.57 -13.4 7.8 86 -15.3 4.5 0
05:03 1003 29.62 832 24.57 -13.4 7.9 87 -15.2 4.7 0
05:04 1003 29.62 832 24.57 -13.4 8 87 -15.1 4.7 0
05:05 1003 29.62 832 24.57 -13.3 8.1 87 -15.1 4.9 0
05:06 1003 29.62 832 24.57 -13.2 8.2 87 -15 5 0
05:07 1003 29.62 832 24.57 -13.2 8.3 87 -14.9 5.2 0
05:08 1003 29.62 832 24.57 -13.1 8.4 87 -14.8 5.3 0
05:09 1003 29.62 832 24.57 -13.1 8.5 87 -14.9 5.3 0
05:10 1003 29.62 832 24.57 -13 8.6 87 -14.8 5.4 0
05:11 1003 29.62 832 24.57 -13 8.7 87 -14.7 5.5 0
05:12 1003 29.62 832 24.57 -12.9 8.8 86 -14.8 5.4 0
05:13 1003 29.62 832 24.57 -12.9 8.8 86 -14.7 5.5 0
05:14 1003 29.62 832 24.57 -12.8 8.9 86 -14.6 5.6 0
05:15 1003 29.62 832 24.57 -12.8 9 86 -14.6 5.6 0
05:16 1003 29.62 832 24.57 -12.8 9 86 -14.6 5.7 0
05:17 1003 29.62 832 24.57 -12.7 9.1 86 -14.5 5.8 0
05:18 1003 29.62 832 24.57 -12.7 9.2 87 -14.5 6 0
05:19 1003 29.62 832 24.57 -12.6 9.3 87 -14.4 6 0
05:20 1003 29.62 832 24.57 -12.6 9.4 86 -14.4 6 0
05:21 1003 29.62 832 24.57 -12.5 9.4 86 -14.4 6.1 0
05:22 1003 29.62 832 24.57 -12.5 9.5 86 -14.4 6.1 0
05:23 1003 29.62 832 24.57 -12.5 9.5 86 -14.4 6.1 0
05:24 1003 29.62 832 24.57 -12.5 9.6 86 -14.3 6.2 0
05:25 1003 29.62 832 24.57 -12.4 9.6 86 -14.3 6.3 0
05:26 1003 29.62 832 24.57 -12.4 9.7 86 -14.3 6.3 0
05:27 1003 29.62 832 24.57 -12.3 9.8 86 -14.2 6.4 0
05:28 1003 29.62 832 24.57 -12.3 9.8 86 -14.2 6.5 0
05:29 1003 29.62 832 24.57 -12.3 9.9 86 -14.2 6.4 0
05:30 1003 29.62 832 24.57 -12.3 9.9 86 -14.2 6.5 0
05:31 1003 29.62 832 24.57 -12.3 10 86 -14.2 6.4 0
05:32 1003 29.62 832 24.57 -12.3 10 85 -14.2 6.4 0
05:33 1003 29.62 832 24.57 -12.2 10 85 -14.2 6.5 0
05:34 1003 29.62 832 24.57 -12.2 10 85 -14.2 6.5 0
05:35 1003 29.62 832 24.57 -12.2 10.1 85 -14.2 6.5 0
05:36 1003 29.62 832 24.57 -12.2 10.1 85 -14.1 6.5 0
05:37 1003 29.62 832 24.57 -12.1 10.2 86 -14.1 6.6 0
05:38 1003 29.62 832 24.57 -12.1 10.2 86 -14.1 6.6 0
05:39 1003 29.62 832 24.57 -12.1 10.3 85 -14.1 6.7 0
05:40 1003 29.62 832 24.57 -12.1 10.3 85 -14 6.7 0
05:41 1003 29.62 832 24.57 -12 10.3 85 -14 6.8 0
05:42 1003 29.62 832 24.57 -12 10.4 85 -14 6.8 0
05:43 1003 29.62 832 24.57 -11.9 10.5 85 -13.9 6.9 0
05:44 1003 29.62 832 24.57 -11.9 10.5 85 -13.9 7 0
05:45 1002 29.59 832 24.57 -11.9 10.6 85 -13.9 7 0
05:46 1002 29.59 832 24.57 -11.9 10.7 85 -13.9 7 0
05:47 1002 29.59 832 24.57 -11.8 10.7 85 -13.8 7.1 0
05:48 1002 29.59 832 24.57 -11.8 10.8 85 -13.7 7.3 0
05:49 1002 29.59 832 24.57 -11.8 10.8 86 -13.7 7.3 0
05:50 1002 29.59 832 24.57 -11.8 10.8 85 -13.8 7.1 0
05:51 1002 29.59 832 24.57 -11.7 10.9 85 -13.8 7.2 0
05:52 1002 29.59 832 24.57 -11.8 10.8 86 -13.7 7.3 0
05:53 1002 29.59 832 24.57 -11.7 10.9 85 -13.7 7.3 0
05:54 1002 29.59 832 24.57 -11.7 11 86 -13.7 7.4 0
05:55 1002 29.59 832 24.57 -11.7 11 86 -13.5 7.6 0
05:56 1002 29.59 832 24.57 -11.6 11 86 -13.5 7.6 0
05:57 1002 29.59 832 24.57 -11.6 11 86 -13.6 7.6 0
05:58 1002 29.59 832 24.57 -11.6 11.2 86 -13.5 7.8 0
05:59 1002 29.59 832 24.57 -11.5 11.3 86 -13.4 7.8 0
06:00 1002 29.59 832 24.57 -11.5 11.3 86 -13.4 7.8 0
06:01 1002 29.59 832 24.57 -11.5 11.4 86 -13.4 7.9 0
06:02 1002 29.59 832 24.57 -11.5 11.4 85 -13.4 7.8 0
06:03 1002 29.59 832 24.57 -11.4 11.4 85 -13.4 7.8 0
06:04 1002 29.59 832 24.57 -11.4 11.5 85 -13.4 7.9 0
06:05 1002 29.59 832 24.57 -11.4 11.5 85 -13.4 7.8 0
06:06 1002 29.59 832 24.57 -11.4 11.5 85 -13.4 7.8 0
06:07 1002 29.59 832 24.57 -11.4 11.5 85 -13.4 7.8 0
06:08 1002 29.59 832 24.57 -11.4 11.6 85 -13.4 8 0
06:09 1002 29.59 832 24.57 -11.3 11.7 85 -13.4 8 0
06:10 1002 29.59 832 24.57 -11.3 11.7 85 -13.4 7.9 0
06:11 1002 29.59 832 24.57 -11.3 11.6 85 -13.4 7.8 0
06:12 1002 29.59 832 24.57 -11.3 11.6 85 -13.4 7.8 0
06:13 1002 29.59 832 24.57 -11.3 11.7 85 -13.4 7.9 0
06:14 1002 29.59 832 24.57 -11.3 11.7 85 -13.3 8 0
06:15 1002 29.59 832 24.57 -11.2 11.8 85 -13.3 8 0
06:16 1002 29.59 832 24.57 -11.2 11.8 85 -13.3 8 0
06:17 1002 29.59 832 24.57 -11.2 11.8 84 -13.4 7.9 0
06:18 1002 29.59 832 24.57 -11.3 11.8 85 -13.4 7.9 0
06:19 1002 29.59 832 24.57 -11.3 11.7 85 -13.3 8 0
06:20 1002 29.59 832 24.57 -11.2 11.8 85 -13.3 8.1 0
06:21 1002 29.59 832 24.57 -11.3 11.6 84 -13.5 7.6 0
06:22 1002 29.59 832 24.57 -11.4 11.4 84 -13.6 7.5 0
06:23 1002 29.59 832 24.57 -11.6 11.1 84 -13.7 7.3 0
06:24 1002 29.59 832 24.57 -11.8 10.8 85 -13.9 7 0
06:25 1002 29.59 832 24.57 -12 10.4 85 -14 6.7 0
06:26 1003 29.62 832 24.57 -12.1 10.2 85 -14.1 6.6 0
06:27 1003 29.62 832 24.57 -12.2 10 84 -14.3 6.2 0
06:28 1002 29.59 832 24.57 -12.4 9.7 85 -14.4 6.1 0
06:29 1002 29.59 832 24.57 -12.5 9.4 85 -14.5 5.9 0
06:30 1002 29.59 832 24.57 -12.6 9.3 85 -14.6 5.6 0
06:31 1002 29.59 832 24.57 -12.7 9.1 85 -14.7 5.5 0
06:32 1002 29.59 832 24.57 -12.8 9 86 -14.7 5.5 0
06:33 1002 29.59 832 24.57 -12.9 8.8 86 -14.7 5.5 0
06:34 1002 29.59 832 24.57 -12.9 8.8 85 -14.9 5.2 0
06:35 1002 29.59 832 24.57 -13 8.6 85 -15 5 0
06:36 1002 29.59 832 24.57 -13.1 8.4 85 -15.1 4.9 0
06:37 1002 29.59 832 24.57 -13.1 8.4 86 -15 5 0
06:38 1002 29.59 832 24.57 -13.2 8.3 85 -15.1 4.8 0
06:39 1002 29.59 832 24.57 -13.2 8.3 85 -15.1 4.7 0
06:40 1002 29.59 832 24.57 -13.3 8.1 86 -15.2 4.6 0
06:41 1002 29.59 832 24.57 -13.3 8.1 86 -15.2 4.6 0
06:42 1002 29.59 832 24.57 -13.4 8 86 -15.3 4.5 0
06:43 1002 29.59 832 24.57 -13.4 7.9 86 -15.3 4.5 0
06:44 1002 29.59 832 24.57 -13.4 7.9 86 -15.3 4.5 0
06:45 1002 29.59 832 24.57 -13.4 7.8 87 -15.2 4.6 0
06:46 1002 29.59 832 24.57 -13.5 7.8 86 -15.3 4.5 0
06:47 1002 29.59 832 24.57 -13.5 7.8 86 -15.3 4.5 0
06:48 1002 29.59 832 24.57 -13.5 7.8 87 -15.3 4.5 0
06:49 1003 29.62 832 24.57 -13.4 7.9 87 -15.2 4.7 0
06:50 1003 29.62 832 24.57 -13.4 7.8 87 -15.2 4.7 0
06:51 1003 29.62 832 24.57 -13.4 7.9 86 -15.2 4.6 0
06:52 1002 29.59 832 24.57 -13.4 7.8 86 -15.2 4.6 0
06:53 1002 29.59 832 24.57 -13.4 7.8 86 -15.3 4.5 0
06:54 1002 29.59 832 24.57 -13.5 7.8 86 -15.3 4.5 0
06:55 1002 29.59 832 24.57 -13.5 7.7 86 -15.4 4.4 0
06:56 1002 29.59 832 24.57 -13.5 7.7 86 -15.4 4.3 0
06:57 1002 29.59 832 24.57 -13.5 7.7 86 -15.4 4.3 0
06:58 1002 29.59 832 24.57 -13.6 7.6 86 -15.5 4.2 0
06:59 1002 29.59 831 24.54 -13.6 7.6 86 -15.5 4.2 0
07:00 1002 29.59 831 24.54 -13.6 7.5 86 -15.5 4.2 0
07:01 1002 29.59 831 24.54 -13.6 7.6 86 -15.5 4.2 0
07:02 1002 29.59 831 24.54 -13.6 7.6 86 -15.4 4.2 0
07:03 1002 29.59 831 24.54 -13.6 7.5 86 -15.4 4.2 0
07:04 1002 29.59 831 24.54 -13.6 7.5 86 -15.5 4.1 0
07:05 1002 29.59 831 24.54 -13.6 7.5 86 -15.5 4.2 0
07:06 1002 29.59 831 24.54 -13.6 7.5 86 -15.5 4 0
07:07 1002 29.59 831 24.54 -13.6 7.4 86 -15.6 4 0
07:08 1002 29.59 831 24.54 -13.7 7.4 86 -15.6 3.9 0
07:09 1002 29.59 831 24.54 -13.7 7.4 86 -15.6 4 0
07:10 1002 29.59 831 24.54 -13.7 7.3 86 -15.6 3.9 0
07:11 1002 29.59 831 24.54 -13.7 7.3 85 -15.7 3.7 0
07:12 1002 29.59 831 24.54 -13.8 7.2 85 -15.7 3.7 0
07:13 1002 29.59 831 24.54 -13.8 7.2 85 -15.7 3.7 0
07:14 1002 29.59 831 24.54 -13.8 7.2 85 -15.7 3.7 0
07:15 1002 29.59 831 24.54 -13.8 7.2 86 -15.7 3.8 0
07:16 1002 29.59 831 24.54 -13.8 7.2 86 -15.6 3.8 0
07:17 1002 29.59 831 24.54 -13.8 7.2 86 -15.6 3.9 0
07:18 1002 29.59 831 24.54 -13.8 7.3 85 -15.7 3.7 0
07:19 1002 29.59 831 24.54 -13.7 7.3 85 -15.7 3.7 0
07:20 1002 29.59 831 24.54 -13.7 7.3 85 -15.7 3.7 0
07:21 1002 29.59 831 24.54 -13.7 7.3 85 -15.7 3.7 0
07:22 1002 29.59 831 24.54 -13.8 7.2 85 -15.7 3.7 0
07:23 1002 29.59 831 24.54 -13.8 7.2 86 -15.7 3.8 0
07:24 1002 29.59 831 24.54 -13.8 7.2 85 -15.7 3.7 0
07:25 1002 29.59 831 24.54 -13.7 7.3 85 -15.7 3.8 0
07:26 1002 29.59 831 24.54 -13.8 7.2 86 -15.7 3.7 0
07:27 1002 29.59 831 24.54 -13.8 7.2 86 -15.7 3.8 0
07:28 1002 29.59 831 24.54 -13.7 7.3 86 -15.6 3.9 0
07:29 1002 29.59 831 24.54 -13.8 7.2 86 -15.7 3.8 0
07:30 1002 29.59 831 24.54 -13.8 7.2 86 -15.7 3.8 0
07:31 1002 29.59 831 24.54 -13.8 7.2 85 -15.7 3.7 0
07:32 1002 29.59 831 24.54 -13.9 7.1 86 -15.8 3.6 0
07:33 1002 29.59 831 24.54 -13.9 7.1 86 -15.7 3.7 0
07:34 1002 29.59 831 24.54 -13.9 7.1 86 -15.7 3.7 0
07:35 1002 29.59 831 24.54 -13.8 7.1 86 -15.8 3.6 0
07:36 1002 29.59 831 24.54 -13.9 7 85 -15.9 3.4 0
07:37 1002 29.59 831 24.54 -13.9 7 86 -15.8 3.5 0
07:38 1002 29.59 831 24.54 -13.9 7 86 -15.8 3.6 0
07:39 1002 29.59 831 24.54 -13.9 7 86 -15.8 3.6 0
07:40 1002 29.59 831 24.54 -13.9 7 86 -15.8 3.6 0
07:41 1002 29.59 831 24.54 -13.9 7 86 -15.8 3.6 0
07:42 1002 29.59 831 24.54 -13.9 7 86 -15.8 3.6 0
07:43 1002 29.59 831 24.54 -13.9 7.1 86 -15.8 3.6 0
07:44 1002 29.59 831 24.54 -13.8 7.1 85 -15.8 3.6 0
07:45 1002 29.59 831 24.54 -13.8 7.1 86 -15.8 3.6 0
07:46 1002 29.59 831 24.54 -13.9 7 86 -15.8 3.6 0
07:47 1002 29.59 831 24.54 -13.8 7.1 86 -15.7 3.7 0
07:48 1002 29.59 831 24.54 -13.8 7.2 86 -15.7 3.8 0
07:49 1002 29.59 831 24.54 -13.8 7.2 85 -15.7 3.7 0
07:50 1002 29.59 831 24.54 -13.8 7.2 85 -15.7 3.7 0
07:51 1002 29.59 831 24.54 -13.8 7.2 85 -15.8 3.6 0
07:52 1002 29.59 831 24.54 -13.8 7.2 85 -15.7 3.7 0
07:53 1002 29.59 831 24.54 -13.8 7.3 86 -15.7 3.8 0
07:54 1002 29.59 831 24.54 -13.7 7.3 85 -15.7 3.7 0
07:55 1002 29.59 831 24.54 -13.7 7.3 86 -15.7 3.8 0
07:56 1002 29.59 831 24.54 -13.7 7.3 86 -15.6 3.9 0
07:57 1002 29.59 831 24.54 -13.7 7.4 86 -15.6 3.9 0
07:58 1002 29.59 831 24.54 -13.7 7.4 86 -15.6 4 0
07:59 1002 29.59 831 24.54 -13.7 7.4 85 -15.6 3.9 0
08:00 1002 29.59 831 24.54 -13.6 7.5 86 -15.5 4.1 0
08:01 1002 29.59 831 24.54 -13.6 7.5 85 -15.5 4 0
08:02 1002 29.59 831 24.54 -13.6 7.5 86 -15.4 4.3 0
08:03 1002 29.59 831 24.54 -13.5 7.6 87 -15.3 4.4 0
08:04 1002 29.59 831 24.54 -13.5 7.7 86 -15.4 4.3 0
08:05 1002 29.59 831 24.54 -13.4 7.8 86 -15.3 4.4 0
08:06 1002 29.59 831 24.54 -13.4 7.8 86 -15.3 4.4 0
08:07 1002 29.59 831 24.54 -13.4 7.9 86 -15.3 4.5 0
08:08 1002 29.59 831 24.54 -13.4 7.9 86 -15.3 4.5 0
08:09 1002 29.59 831 24.54 -13.3 8 86 -15.3 4.5 0
08:10 1002 29.59 831 24.54 -13.3 8.1 86 -15.2 4.6 0
08:11 1002 29.59 831 24.54 -13.3 8.1 85 -15.2 4.6 0
08:12 1002 29.59 831 24.54 -13.3 8.1 85 -15.2 4.6 0
08:13 1002 29.59 831 24.54 -13.3 8.2 86 -15.1 4.8 0
08:14 1002 29.59 831 24.54 -13.2 8.2 86 -15.1 4.9 0
08:15 1002 29.59 831 24.54 -13.1 8.4 86 -15 5.1 0
08:16 1002 29.59 831 24.54 -13.1 8.4 86 -15 5 0
08:17 1002 29.59 831 24.54 -13.1 8.5 86 -14.9 5.1 0
08:18 1002 29.59 831 24.54 -13 8.6 86 -14.8 5.3 0
08:19 1002 29.59 831 24.54 -12.9 8.7 86 -14.8 5.3 0
08:20 1002 29.59 831 24.54 -12.9 8.8 86 -14.8 5.4 0
08:21 1002 29.59 831 24.54 -12.9 8.9 86 -14.8 5.4 0
08:22 1002 29.59 831 24.54 -12.8 9 86 -14.7 5.6 0
08:23 1002 29.59 831 24.54 -12.7 9.1 86 -14.6 5.7 0
08:24 1002 29.59 831 24.54 -12.7 9.2 86 -14.6 5.8 0
08:25 1002 29.59 831 24.54 -12.6 9.3 86 -14.5 5.8 0
08:26 1002 29.59 831 24.54 -12.6 9.4 86 -14.5 6 0
08:27 1002 29.59 831 24.54 -12.5 9.5 86 -14.4 6.1 0
08:28 1002 29.59 831 24.54 -12.5 9.6 86 -14.3 6.2 0
08:29 1002 29.59 831 24.54 -12.4 9.7 86 -14.3 6.3 0
08:30 1002 29.59 831 24.54 -12.3 9.8 86 -14.2 6.4 0
08:31 1002 29.59 831 24.54 -12.3 9.9 85 -14.2 6.4 0
08:32 1002 29.59 831 24.54 -12.2 10 85 -14.2 6.5 0
08:33 1002 29.59 831 24.54 -12.2 10.1 85 -14.2 6.4 0
08:34 1002 29.59 831 24.54 -12.1 10.2 85 -14.2 6.5 0
08:35 1002 29.59 831 24.54 -12.1 10.2 85 -14.2 6.5 0
08:36 1002 29.59 831 24.54 -12.1 10.3 85 -14 6.7 0
08:37 1002 29.59 831 24.54 -12 10.3 85 -14.1 6.7 0
08:38 1002 29.59 831 24.54 -12 10.4 85 -14 6.7 0
08:39 1002 29.59 831 24.54 -12 10.5 85 -14 6.7 0
08:40 1002 29.59 831 24.54 -11.9 10.5 85 -14 6.8 0
08:41 1002 29.59 831 24.54 -11.9 10.5 84 -14.1 6.7 0
08:42 1002 29.59 831 24.54 -11.8 10.7 84 -14 6.8 0
08:43 1002 29.59 831 24.54 -11.9 10.7 84 -14 6.9 0
08:44 1002 29.59 831 24.54 -11.8 10.8 85 -13.9 7 0
08:45 1002 29.59 831 24.54 -11.8 10.8 84 -13.9 6.9 0
08:46 1002 29.59 831 24.54 -11.8 10.8 84 -13.9 6.9 0
08:47 1002 29.59 831 24.54 -11.8 10.8 84 -13.9 6.9 0
08:48 1002 29.59 831 24.54 -11.7 10.9 84 -13.9 7 0
08:49 1002 29.59 831 24.54 -11.7 10.9 84 -13.9 7 0
08:50 1002 29.59 831 24.54 -11.7 11 84 -13.8 7.2 0
08:51 1002 29.59 831 24.54 -11.6 11.1 85 -13.7 7.3 0
08:52 1002 29.59 831 24.54 -11.6 11.2 84 -13.7 7.3 0
08:53 1002 29.59 831 24.54 -11.6 11.2 84 -13.7 7.3 0
08:54 1002 29.59 831 24.54 -11.5 11.2 84 -13.7 7.3 0
08:55 1002 29.59 831 24.54 -11.5 11.3 84 -13.7 7.4 0
08:56 1002 29.59 831 24.54 -11.5 11.3 85 -13.5 7.6 0
08:57 1002 29.59 831 24.54 -11.4 11.5 85 -13.4 7.8 0
08:58 1002 29.59 831 24.54 -11.4 11.5 85 -13.5 7.8 0
08:59 1002 29.59 831 24.54 -11.4 11.5 85 -13.4 7.8 0
09:00 1002 29.59 831 24.54 -11.3 11.6 85 -13.4 7.9 0
09:01 1002 29.59 831 24.54 -11.3 11.7 85 -13.4 8 0
09:02 1002 29.59 831 24.54 -11.2 11.8 85 -13.3 8.1 0
09:03 1002 29.59 831 24.54 -11.2 11.9 85 -13.2 8.2 0
09:04 1002 29.59 831 24.54 -11.2 11.8 85 -13.3 8.1 0
09:05 1002 29.59 831 24.54 -11.2 11.9 85 -13.2 8.2 0
09:06 1002 29.59 831 24.54 -11.2 11.9 85 -13.2 8.2 0
09:07 1002 29.59 831 24.54 -11.2 11.9 85 -13.2 8.2 0
09:08 1002 29.59 831 24.54 -11.2 11.9 85 -13.2 8.2 0
09:09 1002 29.59 831 24.54 -11.2 11.8 85 -13.2 8.2 0
09:10 1002 29.59 831 24.54 -11.2 11.8 86 -13.2 8.3 0
09:11 1002 29.59 831 24.54 -11.2 11.9 86 -13.1 8.4 0
09:12 1002 29.59 831 24.54 -11.2 11.9 86 -13.1 8.4 0
09:13 1002 29.59 831 24.54 -11.2 11.9 86 -13.1 8.5 0
09:14 1002 29.59 831 24.54 -11.1 12 86 -13 8.7 0
09:15 1002 29.59 831 24.54 -11.1 12 87 -12.9 8.7 0
09:16 1002 29.59 831 24.54 -11.1 12.1 86 -12.9 8.8 0
09:17 1002 29.59 831 24.54 -11.1 12.1 86 -12.9 8.8 0
09:18 1002 29.59 831 24.54 -11.1 12.1 86 -12.9 8.8 0
09:19 1002 29.59 831 24.54 -11 12.1 86 -12.9 8.7 0
09:20 1002 29.59 831 24.54 -11.1 12 86 -13 8.7 0
09:21 1002 29.59 831 24.54 -11.1 12 87 -12.9 8.7 0
09:22 1002 29.59 831 24.54 -11.1 11.9 87 -12.9 8.7 0
09:23 1002 29.59 831 24.54 -11.2 11.9 87 -13 8.7 0
09:24 1002 29.59 831 24.54 -11.1 12 87 -12.9 8.8 0
09:25 1002 29.59 831 24.54 -11.1 11.9 87 -12.9 8.8 0
09:26 1002 29.59 831 24.54 -11.1 12 87 -12.9 8.8 0
09:27 1002 29.59 831 24.54 -11.1 12 87 -12.8 8.9 0
09:28 1002 29.59 831 24.54 -11.1 12 87 -12.9 8.8 0
09:29 1002 29.59 831 24.54 -11.1 12 87 -12.9 8.8 0
09:30 1002 29.59 831 24.54 -11.1 12 87 -12.9 8.8 0
09:31 1002 29.59 831 24.54 -11.1 12 87 -12.9 8.8 0
09:32 1002 29.59 831 24.54 -11.1 12.1 87 -12.8 8.9 0
09:33 1002 29.59 831 24.54 -11.1 12.1 87 -12.8 8.9 0
09:34 1002 29.59 831 24.54 -11 12.1 87 -12.8 9 0
09:35 1002 29.59 831 24.54 -11 12.2 87 -12.7 9.1 0
09:36 1002 29.59 831 24.54 -10.9 12.3 87 -12.7 9.1 0
09:37 1002 29.59 831 24.54 -10.9 12.3 86 -12.8 8.9 0
09:38 1002 29.59 831 24.54 -10.9 12.3 86 -12.8 8.9 0
09:39 1002 29.59 831 24.54 -11 12.3 85 -12.9 8.7 0
09:40 1002 29.59 831 24.54 -11 12.2 86 -12.9 8.8 0
09:41 1002 29.59 831 24.54 -11 12.2 86 -12.9 8.8 0
09:42 1002 29.59 831 24.54 -11 12.3 86 -12.9 8.7 0
09:43 1002 29.59 831 24.54 -11 12.3 86 -12.9 8.8 0
09:44 1002 29.59 831 24.54 -11 12.3 86 -12.9 8.8 0
09:45 1002 29.59 831 24.54 -11 12.3 86 -12.8 8.9 0
09:46 1002 29.59 831 24.54 -11 12.2 86 -12.8 8.9 0
09:47 1002 29.59 831 24.54 -10.9 12.3 86 -12.8 9 0
09:48 1002 29.59 831 24.54 -10.9 12.3 86 -12.8 9 0
09:49 1002 29.59 831 24.54 -10.9 12.3 86 -12.8 9 0
09:50 1002 29.59 831 24.54 -10.9 12.4 87 -12.7 9.1 0
09:51 1002 29.59 831 24.54 -10.8 12.5 87 -12.7 9.2 0
09:52 1002 29.59 831 24.54 -10.8 12.5 86 -12.7 9.2 0
09:53 1002 29.59 831 24.54 -10.8 12.6 87 -12.6 9.3 0
09:54 1002 29.59 831 24.54 -10.7 12.7 86 -12.6 9.3 0
09:55 1002 29.59 831 24.54 -10.7 12.8 86 -12.6 9.4 0
09:56 1002 29.59 831 24.54 -10.6 12.8 85 -12.6 9.3 0
09:57 1002 29.59 831 24.54 -10.7 12.7 86 -12.7 9.2 0
09:58 1002 29.59 831 24.54 -10.7 12.7 86 -12.7 9.2 0
09:59 1002 29.59 831 24.54 -10.7 12.7 86 -12.6 9.2 0
10:00 1002 29.59 831 24.54 -10.7 12.7 86 -12.6 9.4 0
10:01 1002 29.59 831 24.54 -10.7 12.8 87 -12.5 9.5 0
10:02 1002 29.59 831 24.54 -10.6 12.9 86 -12.5 9.5 0
10:03 1002 29.59 831 24.54 -10.6 12.9 86 -12.5 9.5 0
10:04 1002 29.59 831 24.54 -10.6 12.9 86 -12.5 9.5 0
10:05 1002 29.59 831 24.54 -10.6 12.9 86 -12.4 9.6 0
10:06 1002 29.59 831 24.54 -10.6 12.8 86 -12.6 9.4 0
10:07 1002 29.59 831 24.54 -10.7 12.8 86 -12.5 9.5 0
10:08 1002 29.59 831 24.54 -10.7 12.8 86 -12.5 9.5 0
10:09 1002 29.59 831 24.54 -10.7 12.8 86 -12.5 9.5 0
10:10 1002 29.59 831 24.54 -10.6 12.9 86 -12.5 9.6 0
10:11 1002 29.59 831 24.54 -10.6 12.9 87 -12.4 9.7 0
10:12 1002 29.59 831 24.54 -10.6 13 87 -12.4 9.7 0
10:13 1002 29.59 831 24.54 -10.6 13 87 -12.4 9.8 0
10:14 1002 29.59 831 24.54 -10.5 13 87 -12.3 9.8 0
10:15 1002 29.59 831 24.54 -10.5 13.2 87 -12.3 9.9 0
10:16 1002 29.59 831 24.54 -10.4 13.2 87 -12.2 10 0
10:17 1002 29.59 831 24.54 -10.4 13.3 87 -12.1 10.2 0
10:18 1002 29.59 831 24.54 -10.3 13.4 87 -12.1 10.2 0
10:19 1002 29.59 831 24.54 -10.3 13.5 87 -12.1 10.3 0
10:20 1002 29.59 831 24.54 -10.2 13.7 87 -12 10.5 0
10:21 1002 29.59 831 24.54 -10.2 13.7 87 -12 10.4 0
10:22 1002 29.59 831 24.54 -10.1 13.7 87 -11.9 10.6 0
10:23 1002 29.59 831 24.54 -10.1 13.8 87 -11.9 10.6 0
10:24 1002 29.59 831 24.54 -10.1 13.8 87 -11.8 10.7 0
10:25 1002 29.59 831 24.54 -10.1 13.9 87 -11.8 10.8 0
10:26 1002 29.59 831 24.54 -10.1 13.9 87 -11.8 10.8 0
10:27 1002 29.59 831 24.54 -10 14 88 -11.7 11 0
10:28 1002 29.59 831 24.54 -9.9 14.1 87 -11.7 11 0
10:29 1002 29.59 831 24.54 -9.9 14.2 87 -11.7 11 0
10:30 1002 29.59 831 24.54 -9.9 14.2 87 -11.6 11 0
10:31 1002 29.59 831 24.54 -9.8 14.4 87 -11.5 11.2 0
10:32 1002 29.59 831 24.54 -9.8 14.5 87 -11.5 11.4 0
10:33 1002 29.59 831 24.54 -9.7 14.5 88 -11.4 11.5 0
10:34 1002 29.59 831 24.54 -9.6 14.7 87 -11.4 11.5 0
10:35 1002 29.59 831 24.54 -9.6 14.8 87 -11.3 11.6 0
10:36 1002 29.59 831 24.54 -9.5 14.9 87 -11.3 11.6 0
10:37 1002 29.59 831 24.54 -9.5 14.9 87 -11.3 11.7 0
10:38 1001 29.56 831 24.54 -9.5 14.9 87 -11.3 11.7 0
10:39 1001 29.56 831 24.54 -9.4 15 87 -11.2 11.9 0
10:40 1002 29.59 831 24.54 -9.3 15.2 87 -11.1 12.1 0
10:41 1002 29.59 831 24.54 -9.2 15.4 87 -11 12.1 0
10:42 1002 29.59 831 24.54 -9.2 15.5 87 -11 12.2 0
10:43 1002 29.59 831 24.54 -9.1 15.6 86 -11 12.2 0
10:44 1001 29.56 831 24.54 -9 15.8 87 -10.8 12.6 0
10:45 1001 29.56 831 24.54 -8.9 15.9 86 -10.8 12.5 0
10:46 1001 29.56 831 24.54 -8.9 16.1 86 -10.8 12.5 0
10:47 1001 29.56 831 24.54 -8.8 16.2 86 -10.7 12.7 0
10:48 1001 29.56 831 24.54 -8.7 16.3 85 -10.9 12.5 0
10:49 1001 29.56 831 24.54 -8.8 16.2 84 -11 12.3 0
10:50 1001 29.56 831 24.54 -8.9 16.1 84 -11 12.2 0
10:51 1001 29.56 831 24.54 -8.9 15.9 85 -11.1 12.1 0
10:52 1001 29.56 831 24.54 -9 15.8 85 -11.1 12 0
10:53 1001 29.56 831 24.54 -9 15.7 85 -11.1 12 0
10:54 1001 29.56 830 24.51 -9.1 15.6 85 -11.2 11.9 0
10:55 1001 29.56 831 24.54 -9.2 15.5 86 -11.1 11.9 0
10:56 1001 29.56 831 24.54 -9.3 15.3 86 -11.2 11.9 0
10:57 1001 29.56 831 24.54 -9.3 15.3 86 -11.2 11.8 0
10:58 1001 29.56 831 24.54 -9.4 15.1 87 -11.2 11.8 0
10:59 1001 29.56 831 24.54 -9.4 15.1 87 -11.3 11.7 0
11:00 1001 29.56 831 24.54 -9.5 14.9 86 -11.4 11.5 0
11:01 1001 29.56 831 24.54 -9.6 14.8 86 -11.5 11.3 0
11:02 1001 29.56 831 24.54 -9.7 14.5 87 -11.5 11.2 0
11:03 1001 29.56 831 24.54 -9.8 14.4 87 -11.6 11.1 0
11:04 1001 29.56 831 24.54 -9.9 14.2 87 -11.6 11.1 0
11:05 1001 29.56 831 24.54 -9.9 14.1 87 -11.7 10.9 0
11:06 1001 29.56 830 24.51 -10 14 87 -11.7 10.9 0
11:07 1001 29.56 830 24.51 -10.1 13.9 87 -11.8 10.7 0
11:08 1001 29.56 831 24.54 -10.1 13.8 87 -11.9 10.6 0
11:09 1001 29.56 831 24.54 -10.2 13.7 87 -11.9 10.6 0
11:10 1001 29.56 831 24.54 -10.3 13.5 87 -12.1 10.3 0
11:11 1001 29.56 831 24.54 -10.3 13.4 88 -12 10.4 0
11:12 1001 29.56 831 24.54 -10.4 13.3 87 -12.1 10.1 0
11:13 1001 29.56 830 24.51 -10.5 13.2 88 -12.1 10.2 0
11:14 1001 29.56 831 24.54 -10.5 13.1 87 -12.3 9.9 0
11:15 1001 29.56 830 24.51 -10.6 13 87 -12.4 9.7 0
11:16 1001 29.56 831 24.54 -10.7 12.7 87 -12.5 9.4 0
11:17 1001 29.56 831 24.54 -10.8 12.5 87 -12.6 9.4 0
11:18 1001 29.56 831 24.54 -10.9 12.3 87 -12.7 9.2 0
11:19 1001 29.56 830 24.51 -11.1 12 86 -13 8.7 0
11:20 1001 29.56 830 24.51 -11.2 11.8 87 -13 8.6 0
11:21 1001 29.56 830 24.51 -11.4 11.5 87 -13.1 8.3 0
11:22 1001 29.56 830 24.51 -11.5 11.2 87 -13.2 8.2 0
11:23 1001 29.56 831 24.54 -11.6 11.1 87 -13.3 8 0
11:24 1001 29.56 831 24.54 -11.7 11 86 -13.5 7.6 0
11:25 1001 29.56 831 24.54 -11.8 10.7 87 -13.7 7.4 0
11:26 1001 29.56 831 24.54 -11.9 10.5 86 -13.8 7.2 0
11:27 1001 29.56 831 24.54 -12 10.3 87 -13.7 7.3 0
11:28 1001 29.56 831 24.54 -12 10.4 88 -13.7 7.4 0
11:29 1001 29.56 831 24.54 -12 10.4 87 -13.7 7.3 0
11:30 1001 29.56 831 24.54 -12 10.3 86 -13.9 7 0
11:31 1001 29.56 831 24.54 -12.1 10.3 87 -13.8 7.1 0
11:32 1001 29.56 831 24.54 -12.1 10.3 87 -13.9 7 0
11:33 1001 29.56 831 24.54 -12.1 10.2 87 -13.9 7.1 0
11:34 1001 29.56 831 24.54 -12.2 10.1 87 -13.9 7 0
11:35 1001 29.56 831 24.54 -12.2 10.1 87 -13.9 7 0
11:36 1001 29.56 831 24.54 -12.2 10.1 87 -13.9 6.9 0
11:37 1001 29.56 831 24.54 -12.2 10 87 -14 6.8 0
11:38 1001 29.56 831 24.54 -12.3 9.9 87 -14.1 6.7 0
11:39 1001 29.56 831 24.54 -12.3 9.9 86 -14.1 6.6 0
11:40 1001 29.56 831 24.54 -12.3 9.8 86 -14.2 6.4 0
11:41 1001 29.56 831 24.54 -12.4 9.7 87 -14.2 6.5 0
11:42 1001 29.56 831 24.54 -12.4 9.7 87 -14.1 6.6 0
11:43 1001 29.56 831 24.54 -12.4 9.6 87 -14.2 6.4 0
11:44 1001 29.56 831 24.54 -12.4 9.6 87 -14.2 6.4 0
11:45 1001 29.56 831 24.54 -12.4 9.6 86 -14.3 6.3 0
11:46 1001 29.56 831 24.54 -12.5 9.5 85 -14.5 5.9 0
11:47 1001 29.56 831 24.54 -12.6 9.3 86 -14.5 5.9 0
11:48 1001 29.56 831 24.54 -12.7 9.2 85 -14.7 5.5 0
11:49 1001 29.56 831 24.54 -12.7 9.1 85 -14.7 5.5 0
11:50 1001 29.56 831 24.54 -12.8 9 86 -14.7 5.6 0
11:51 1001 29.56 831 24.54 -12.7 9.1 86 -14.6 5.7 0
11:52 1001 29.56 831 24.54 -12.7 9.1 86 -14.7 5.6 0
11:53 1001 29.56 831 24.54 -12.7 9.1 86 -14.7 5.6 0
11:54 1001 29.56 831 24.54 -12.8 9.1 86 -14.7 5.5 0
11:55 1001 29.56 831 24.54 -12.7 9.1 86 -14.6 5.7 0
11:56 1001 29.56 831 24.54 -12.7 9.1 86 -14.7 5.6 0
11:57 1001 29.56 831 24.54 -12.8 9.1 86 -14.6 5.7 0
11:58 1001 29.56 831 24.54 -12.8 9 86 -14.7 5.6 0
11:59 1001 29.56 831 24.54 -12.8 9 86 -14.7 5.6 0
12:00 1001 29.56 831 24.54 -12.8 9 86 -14.7 5.5 0
12:01 1001 29.56 831 24.54 -12.8 9 86 -14.7 5.6 0
12:02 1001 29.56 831 24.54 -12.8 9 85 -14.8 5.4 0
12:03 1001 29.56 831 24.54 -12.8 9 86 -14.7 5.6 0
12:04 1001 29.56 831 24.54 -12.8 9.1 85 -14.7 5.5 0
12:05 1001 29.56 831 24.54 -12.8 9 86 -14.7 5.6 0
12:06 1001 29.56 831 24.54 -12.7 9.1 86 -14.6 5.6 0
12:07 1001 29.56 831 24.54 -12.7 9.1 85 -14.7 5.5 0
12:08 1001 29.56 831 24.54 -12.7 9.1 86 -14.6 5.7 0
12:09 1001 29.56 831 24.54 -12.7 9.2 86 -14.6 5.7 0
12:10 1001 29.56 831 24.54 -12.6 9.3 86 -14.5 5.8 0
12:11 1001 29.56 831 24.54 -12.6 9.4 86 -14.5 5.9 0
12:12 1001 29.56 831 24.54 -12.6 9.4 85 -14.6 5.8 0
12:13 1001 29.56 831 24.54 -12.5 9.4 86 -14.5 6 0
12:14 1002 29.59 831 24.54 -12.5 9.5 86 -14.3 6.2 0
12:15 1002 29.59 831 24.54 -12.4 9.6 85 -14.5 6 0
12:16 1002 29.59 831 24.54 -12.5 9.6 86 -14.4 6.1 0
12:17 1002 29.59 831 24.54 -12.5 9.6 86 -14.4 6.1 0
12:18 1002 29.59 831 24.54 -12.4 9.6 85 -14.4 6 0
12:19 1002 29.59 831 24.54 -12.4 9.6 86 -14.4 6.1 0
12:20 1002 29.59 831 24.54 -12.4 9.6 86 -14.4 6.1 0
12:21 1002 29.59 831 24.54 -12.4 9.7 85 -14.4 6 0
12:22 1002 29.59 831 24.54 -12.4 9.7 85 -14.4 6.1 0
12:23 1002 29.59 831 24.54 -12.4 9.7 85 -14.4 6.1 0
12:24 1002 29.59 831 24.54 -12.4 9.7 85 -14.3 6.2 0
12:25 1002 29.59 831 24.54 -12.4 9.8 86 -14.3 6.3 0
12:26 1001 29.56 831 24.54 -12.4 9.8 85 -14.3 6.2 0
12:27 1001 29.56 831 24.54 -12.3 9.8 85 -14.3 6.3 0
12:28 1001 29.56 831 24.54 -12.3 9.8 85 -14.3 6.3 0
12:29 1001 29.56 831 24.54 -12.3 9.8 86 -14.2 6.4 0
12:30 1001 29.56 831 24.54 -12.3 10 86 -14.2 6.5 0
12:31 1001 29.56 831 24.54 -12.2 10 86 -14.2 6.5 0
12:32 1001 29.56 831 24.54 -12.2 10 86 -14.1 6.6 0
12:33 1001 29.56 831 24.54 -12.2 10.1 85 -14.2 6.5 0
12:34 1001 29.56 831 24.54 -12.1 10.1 86 -14.1 6.7 0
12:35 1001 29.56 831 24.54 -12.1 10.2 86 -14 6.7 0
12:36 1001 29.56 831 24.54 -12.1 10.3 86 -13.9 6.9 0
12:37 1001 29.56 831 24.54 -12 10.4 85 -14 6.8 0
12:38 1001 29.56 831 24.54 -12 10.4 86 -14 6.9 0
12:39 1001 29.56 831 24.54 -12 10.4 86 -13.9 7 0
12:40 1001 29.56 831 24.54 -12 10.4 85 -14.1 6.7 0
12:41 1001 29.56 831 24.54 -12.1 10.3 85 -14.1 6.6 0
12:42 1001 29.56 831 24.54 -12.1 10.1 84 -14.3 6.3 0
12:43 1002 29.59 831 24.54 -12.2 10 84 -14.3 6.2 0
12:44 1002 29.59 831 24.54 -12.2 10 84 -14.4 6.1 0
12:45 1002 29.59 831 24.54 -12.3 9.9 85 -14.3 6.3 0
12:46 1002 29.59 831 24.54 -12.3 9.9 85 -14.3 6.3 0
12:47 1002 29.59 831 24.54 -12.3 10 85 -14.2 6.4 0
12:48 1002 29.59 831 24.54 -12.2 10 85 -14.3 6.3 0
12:49 1002 29.59 831 24.54 -12.2 10 85 -14.3 6.3 0
12:50 1002 29.59 831 24.54 -12.3 10 85 -14.2 6.4 0
12:51 1002 29.59 831 24.54 -12.2 10 86 -14.2 6.5 0
12:52 1002 29.59 831 24.54 -12.2 10.1 85 -14.2 6.4 0
12:53 1002 29.59 831 24.54 -12.2 10 85 -14.3 6.3 0
12:54 1002 29.59 831 24.54 -12.2 10 85 -14.3 6.3 0
12:55 1001 29.56 831 24.54 -12.2 10 85 -14.2 6.4 0
12:56 1002 29.59 831 24.54 -12.3 9.9 85 -14.3 6.3 0
12:57 1002 29.59 831 24.54 -12.3 9.9 86 -14.2 6.5 0
12:58 1002 29.59 831 24.54 -12.2 10 86 -14.1 6.6 0
12:59 1002 29.59 831 24.54 -12.1 10.1 86 -14.1 6.7 0
13:00 1002 29.59 831 24.54 -12.1 10.1 85 -14.1 6.6 0
13:01 1002 29.59 831 24.54 -12.2 10.1 85 -14.3 6.3 0
13:02 1002 29.59 831 24.54 -12.3 9.9 84 -14.5 6 0
13:03 1002 29.59 831 24.54 -12.3 9.8 84 -14.6 5.8 0
13:04 1002 29.59 831 24.54 -12.5 9.6 83 -14.7 5.5 0
13:05 1002 29.59 831 24.54 -12.5 9.4 84 -14.7 5.5 0
13:06 1002 29.59 831 24.54 -12.6 9.4 85 -14.6 5.7 0
13:07 1002 29.59 831 24.54 -12.6 9.3 85 -14.7 5.6 0
13:08 1002 29.59 831 24.54 -12.6 9.2 84 -14.8 5.4 0
13:09 1001 29.56 831 24.54 -12.7 9.2 84 -14.8 5.4 0
13:10 1001 29.56 831 24.54 -12.7 9.2 85 -14.7 5.5 0
13:11 1001 29.56 831 24.54 -12.7 9.2 85 -14.7 5.5 0
13:12 1001 29.56 831 24.54 -12.7 9.1 85 -14.7 5.6 0
13:13 1001 29.56 831 24.54 -12.7 9.1 85 -14.7 5.6 0
13:14 1001 29.56 831 24.54 -12.7 9.2 85 -14.7 5.6 0
13:15 1001 29.56 831 24.54 -12.7 9.2 85 -14.8 5.4 0
13:16 1001 29.56 831 24.54 -12.7 9.1 85 -14.8 5.3 0
13:17 1001 29.56 831 24.54 -12.7 9.1 84 -14.9 5.2 0
13:18 1001 29.56 831 24.54 -12.8 8.9 84 -14.9 5.1 0
13:19 1001 29.56 831 24.54 -12.8 8.9 85 -14.9 5.2 0
13:20 1001 29.56 831 24.54 -12.9 8.8 85 -14.9 5.3 0
13:21 1001 29.56 831 24.54 -12.8 8.9 85 -14.8 5.3 0
13:22 1001 29.56 831 24.54 -12.8 8.9 85 -14.8 5.3 0
13:23 1001 29.56 831 24.54 -12.8 8.9 86 -14.8 5.4 0
13:24 1001 29.56 831 24.54 -12.8 9 85 -14.8 5.4 0
13:25 1001 29.56 831 24.54 -12.8 9 86 -14.7 5.6 0
13:26 1001 29.56 831 24.54 -12.8 9 86 -14.7 5.6 0
13:27 1001 29.56 831 24.54 -12.8 9 86 -14.6 5.7 0
13:28 1001 29.56 831 24.54 -12.8 9 87 -14.6 5.8 0
13:29 1001 29.56 831 24.54 -12.7 9.1 86 -14.6 5.7 0
13:30 1001 29.56 831 24.54 -12.7 9.1 85 -14.7 5.5 0
13:31 1001 29.56 831 24.54 -12.8 8.9 85 -14.8 5.3 0
13:32 1001 29.56 831 24.54 -12.9 8.9 86 -14.8 5.4 0
13:33 1001 29.56 831 24.54 -12.9 8.8 86 -14.8 5.4 0
13:34 1001 29.56 831 24.54 -12.9 8.8 86 -14.8 5.4 0
13:35 1001 29.56 831 24.54 -12.9 8.7 85 -14.9 5.2 0
13:36 1001 29.56 831 24.54 -13 8.6 84 -15.1 4.9 0
13:37 1001 29.56 831 24.54 -13.1 8.5 85 -15.1 4.7 0
13:38 1001 29.56 831 24.54 -13.2 8.3 85 -15.3 4.5 0
13:39 1001 29.56 831 24.54 -13.2 8.2 85 -15.3 4.5 0
13:40 1001 29.56 831 24.54 -13.2 8.2 85 -15.2 4.6 0
13:41 1001 29.56 831 24.54 -13.3 8.1 85 -15.3 4.4 0
13:42 1001 29.56 831 24.54 -13.3 8.1 85 -15.4 4.3 0
13:43 1001 29.56 831 24.54 -13.4 8 85 -15.4 4.4 0
13:44 1001 29.56 831 24.54 -13.4 8 84 -15.5 4.2 0
13:45 1001 29.56 831 24.54 -13.4 7.9 85 -15.4 4.2 0
13:46 1001 29.56 831 24.54 -13.4 7.9 85 -15.5 4.1 0
13:47 1001 29.56 831 24.54 -13.4 7.8 85 -15.4 4.2 0
13:48 1001 29.56 831 24.54 -13.4 7.9 85 -15.4 4.3 0
13:49 1001 29.56 831 24.54 -13.4 7.9 85 -15.4 4.4 0
13:50 1001 29.56 831 24.54 -13.4 7.9 85 -15.4 4.2 0
13:51 1001 29.56 831 24.54 -13.4 7.8 85 -15.5 4.2 0
13:52 1001 29.56 831 24.54 -13.4 7.9 85 -15.4 4.3 0
13:53 1001 29.56 831 24.54 -13.4 7.9 85 -15.4 4.3 0
13:54 1001 29.56 831 24.54 -13.4 7.8 85 -15.4 4.3 0
13:55 1001 29.56 831 24.54 -13.4 7.8 85 -15.5 4.1 0
13:56 1001 29.56 831 24.54 -13.5 7.8 85 -15.5 4.1 0
13:57 1001 29.56 831 24.54 -13.5 7.7 85 -15.5 4.2 0
13:58 1001 29.56 831 24.54 -13.5 7.7 86 -15.4 4.3 0
13:59 1001 29.56 831 24.54 -13.5 7.8 86 -15.4 4.4 0
14:00 1001 29.56 831 24.54 -13.4 7.8 86 -15.3 4.5 0
14:01 1001 29.56 831 24.54 -13.4 7.9 86 -15.3 4.5 0
14:02 1001 29.56 831 24.54 -13.4 7.9 86 -15.3 4.5 0
14:03 1001 29.56 831 24.54 -13.4 7.9 86 -15.3 4.4 0
14:04 1001 29.56 831 24.54 -13.4 7.9 86 -15.3 4.5 0
14:05 1001 29.56 831 24.54 -13.3 8 86 -15.2 4.6 0
14:06 1001 29.56 831 24.54 -13.4 7.9 86 -15.3 4.4 0
14:07 1001 29.56 831 24.54 -13.4 7.9 86 -15.2 4.6 0
14:08 1001 29.56 831 24.54 -13.4 8 86 -15.3 4.5 0
14:09 1001 29.56 831 24.54 -13.4 7.9 86 -15.3 4.5 0
14:10 1001 29.56 831 24.54 -13.4 7.9 86 -15.2 4.6 0
14:11 1001 29.56 831 24.54 -13.4 8 86 -15.3 4.5 0
14:12 1001 29.56 831 24.54 -13.3 8 86 -15.2 4.7 0
14:13 1001 29.56 831 24.54 -13.3 8 86 -15.1 4.7 0
14:14 1001 29.56 831 24.54 -13.3 8.1 86 -15.1 4.8 0
14:15 1001 29.56 831 24.54 -13.2 8.2 86 -15 4.9 0
14:16 1001 29.56 831 24.54 -13.2 8.3 86 -15.1 4.9 0
14:17 1001 29.56 831 24.54 -13.2 8.2 86 -15 5 0
14:18 1002 29.59 831 24.54 -13.1 8.4 86 -15 5.1 0
14:19 1002 29.59 831 24.54 -13.1 8.4 86 -15 5.1 0
14:20 1002 29.59 831 24.54 -13.1 8.4 86 -15 5 0
14:21 1002 29.59 831 24.54 -13.1 8.4 86 -14.9 5.1 0
14:22 1002 29.59 831 24.54 -13.1 8.5 86 -14.9 5.2 0
14:23 1002 29.59 831 24.54 -13 8.6 86 -14.9 5.3 0
14:24 1002 29.59 831 24.54 -13 8.7 86 -14.8 5.3 0
14:25 1002 29.59 831 24.54 -13 8.7 86 -14.9 5.2 0
14:26 1002 29.59 831 24.54 -13 8.7 86 -14.9 5.2 0
14:27 1002 29.59 831 24.54 -13 8.7 86 -14.9 5.2 0
14:28 1002 29.59 831 24.54 -12.9 8.7 86 -14.8 5.3 0
14:29 1002 29.59 831 24.54 -12.9 8.7 86 -14.9 5.2 0
14:30 1002 29.59 831 24.54 -12.9 8.7 86 -14.8 5.4 0
14:31 1002 29.59 831 24.54 -12.8 8.9 86 -14.8 5.4 0
14:32 1002 29.59 831 24.54 -12.9 8.8 86 -14.8 5.3 0
14:33 1002 29.59 831 24.54 -12.9 8.8 85 -14.9 5.1 0
14:34 1002 29.59 831 24.54 -13 8.7 84 -15.1 4.8 0
14:35 1002 29.59 831 24.54 -13 8.5 85 -15.1 4.9 0
14:36 1002 29.59 831 24.54 -13.2 8.3 85 -15.2 4.6 0
14:37 1002 29.59 831 24.54 -13.2 8.3 85 -15.2 4.6 0
14:38 1002 29.59 831 24.54 -13.2 8.2 85 -15.3 4.5 0
14:39 1002 29.59 831 24.54 -13.2 8.2 86 -15.1 4.8 0
14:40 1002 29.59 831 24.54 -13.2 8.2 85 -15.2 4.6 0
14:41 1002 29.59 831 24.54 -13.2 8.2 85 -15.2 4.6 0
14:42 1002 29.59 831 24.54 -13.3 8.1 85 -15.3 4.5 0
14:43 1002 29.59 831 24.54 -13.3 8.1 85 -15.3 4.5 0
14:44 1002 29.59 831 24.54 -13.3 8 85 -15.3 4.4 0
14:45 1002 29.59 831 24.54 -13.4 7.9 85 -15.4 4.2 0
14:46 1002 29.59 831 24.54 -13.4 7.8 85 -15.5 4.2 0
14:47 1002 29.59 831 24.54 -13.5 7.7 85 -15.5 4 0
14:48 1002 29.59 831 24.54 -13.5 7.7 85 -15.5 4.1 0
14:49 1002 29.59 831 24.54 -13.5 7.7 85 -15.5 4.1 0
14:50 1002 29.59 831 24.54 -13.5 7.6 85 -15.5 4.1 0
14:51 1002 29.59 831 24.54 -13.5 7.6 86 -15.4 4.2 0
14:52 1002 29.59 831 24.54 -13.6 7.6 86 -15.5 4.1 0
14:53 1002 29.59 831 24.54 -13.5 7.6 86 -15.4 4.3 0
14:54 1002 29.59 831 24.54 -13.5 7.7 86 -15.4 4.3 0
14:55 1002 29.59 831 24.54 -13.5 7.7 86 -15.4 4.3 0
14:56 1002 29.59 831 24.54 -13.5 7.6 86 -15.4 4.3 0
14:57 1002 29.59 831 24.54 -13.6 7.6 85 -15.6 4 0
14:58 1002 29.59 831 24.54 -13.6 7.5 85 -15.7 3.8 0
14:59 1002 29.59 831 24.54 -13.7 7.4 84 -15.8 3.6 0
15:00 1002 29.59 831 24.54 -13.8 7.2 85 -15.8 3.6 0
15:01 1002 29.59 831 24.54 -13.8 7.1 85 -15.9 3.4 0
15:02 1002 29.59 831 24.54 -13.8 7.1 85 -15.9 3.4 0
15:03 1002 29.59 831 24.54 -13.9 7 85 -15.9 3.3 0
15:04 1002 29.59 831 24.54 -14 6.8 84 -16.1 3 0
15:05 1002 29.59 831 24.54 -14 6.8 84 -16.1 3 0
15:06 1002 29.59 831 24.54 -14 6.7 84 -16.1 3 0
15:07 1002 29.59 831 24.54 -14.1 6.6 84 -16.3 2.7 0
15:08 1002 29.59 831 24.54 -14.2 6.5 85 -16.2 2.8 0
15:09 1002 29.59 831 24.54 -14.2 6.4 84 -16.4 2.5 0
15:10 1002 29.59 831 24.54 -14.3 6.2 84 -16.5 2.2 0
15:11 1002 29.59 831 24.54 -14.4 6.1 84 -16.6 2.2 0
15:12 1002 29.59 831 24.54 -14.4 6 84 -16.6 2.1 0
15:13 1002 29.59 831 24.54 -14.6 5.8 84 -16.8 1.8 0
15:14 1002 29.59 831 24.54 -14.6 5.8 84 -16.7 1.9 0
15:15 1002 29.59 831 24.54 -14.6 5.7 85 -16.6 2.1 0
15:16 1002 29.59 831 24.54 -14.6 5.7 84 -16.7 1.9 0
15:17 1002 29.59 831 24.54 -14.6 5.7 85 -16.7 2 0
15:18 1002 29.59 831 24.54 -14.7 5.6 84 -16.7 1.9 0
15:19 1002 29.59 831 24.54 -14.7 5.6 84 -16.8 1.8 0
15:20 1002 29.59 831 24.54 -14.7 5.5 84 -16.8 1.7 0
15:21 1002 29.59 831 24.54 -14.8 5.5 84 -16.9 1.7 0
15:22 1002 29.59 831 24.54 -14.7 5.5 85 -16.8 1.8 0
15:23 1002 29.59 831 24.54 -14.8 5.5 85 -16.7 1.9 0
15:24 1002 29.59 831 24.54 -14.7 5.5 85 -16.8 1.8 0
15:25 1002 29.59 831 24.54 -14.8 5.5 85 -16.7 1.9 0
15:26 1002 29.59 831 24.54 -14.7 5.5 85 -16.8 1.8 0
15:27 1002 29.59 831 24.54 -14.7 5.5 85 -16.8 1.8 0
15:28 1002 29.59 831 24.54 -14.8 5.4 85 -16.8 1.8 0
15:29 1002 29.59 831 24.54 -14.8 5.4 85 -16.8 1.8 0
15:30 1002 29.59 831 24.54 -14.8 5.3 84 -16.9 1.6 0
15:31 1002 29.59 831 24.54 -14.9 5.2 85 -16.9 1.5 0
15:32 1002 29.59 831 24.54 -14.9 5.2 85 -16.8 1.7 0
15:33 1002 29.59 831 24.54 -14.9 5.1 85 -16.9 1.6 0
15:34 1002 29.59 831 24.54 -14.9 5.2 85 -16.9 1.6 0
15:35 1002 29.59 831 24.54 -14.9 5.1 85 -16.9 1.5 0
15:36 1002 29.59 831 24.54 -15 5.1 85 -17 1.4 0
15:37 1002 29.59 831 24.54 -15 5.1 85 -17 1.4 0
15:38 1002 29.59 831 24.54 -15 5 85 -17 1.5 0
15:39 1002 29.59 831 24.54 -15 5 85 -17.1 1.3 0
15:40 1002 29.59 831 24.54 -15.1 4.9 84 -17.1 1.2 0
15:41 1002 29.59 831 24.54 -15.1 4.8 85 -17.2 1.1 0
15:42 1002 29.59 831 24.54 -15.2 4.7 85 -17.2 1.1 0
15:43 1002 29.59 831 24.54 -15.2 4.6 85 -17.2 1 0
15:44 1002 29.59 831 24.54 -15.2 4.6 85 -17.3 0.9 0
15:45 1002 29.59 831 24.54 -15.2 4.6 85 -17.3 0.9 0
15:46 1002 29.59 831 24.54 -15.3 4.4 85 -17.4 0.8 0
15:47 1002 29.59 831 24.54 -15.3 4.4 85 -17.3 0.8 0
15:48 1002 29.59 831 24.54 -15.3 4.4 85 -17.3 0.8 0
15:49 1002 29.59 831 24.54 -15.3 4.4 86 -17.2 1 0
15:50 1002 29.59 831 24.54 -15.4 4.4 85 -17.4 0.7 0
15:51 1002 29.59 831 24.54 -15.4 4.3 84 -17.4 0.6 0
15:52 1002 29.59 831 24.54 -15.4 4.4 85 -17.4 0.7 0
15:53 1002 29.59 831 24.54 -15.4 4.3 85 -17.3 0.8 0
15:54 1002 29.59 831 24.54 -15.4 4.4 85 -17.3 0.8 0
15:55 1002 29.59 831 24.54 -15.4 4.4 85 -17.4 0.7 0
15:56 1002 29.59 832 24.57 -15.4 4.3 85 -17.4 0.6 0
15:57 1002 29.59 832 24.57 -15.4 4.3 85 -17.4 0.7 0
15:58 1002 29.59 832 24.57 -15.4 4.3 84 -17.4 0.6 0
15:59 1002 29.59 832 24.57 -15.4 4.3 85 -17.4 0.6 0
16:00 1002 29.59 832 24.57 -15.4 4.2 84 -17.5 0.5 0
16:01 1002 29.59 832 24.57 -15.5 4.2 85 -17.5 0.5 0
16:02 1002 29.59 832 24.57 -15.5 4.1 84 -17.6 0.4 0
16:03 1003 29.62 832 24.57 -15.5 4.2 84 -17.6 0.3 0
16:04 1003 29.62 832 24.57 -15.5 4.1 84 -17.6 0.4 0
16:05 1003 29.62 832 24.57 -15.5 4 84 -17.6 0.2 0
16:06 1003 29.62 832 24.57 -15.5 4 84 -17.6 0.3 0
16:07 1003 29.62 832 24.57 -15.6 4 84 -17.7 0.2 0
16:08 1003 29.62 832 24.57 -15.6 4 84 -17.6 0.3 0
16:09 1003 29.62 832 24.57 -15.6 3.9 85 -17.6 0.3 0
16:10 1003 29.62 832 24.57 -15.6 3.9 84 -17.7 0.2 0
16:11 1003 29.62 832 24.57 -15.7 3.8 84 -17.7 0.1 0
16:12 1003 29.62 832 24.57 -15.7 3.8 84 -17.8 -0 0
16:13 1003 29.62 832 24.57 -15.7 3.8 84 -17.7 0.1 0
16:14 1003 29.62 832 24.57 -15.7 3.8 85 -17.7 0.1 0
16:15 1003 29.62 832 24.57 -15.7 3.8 84 -17.7 0.1 0
16:16 1003 29.62 832 24.57 -15.7 3.8 85 -17.7 0.1 0
16:17 1003 29.62 832 24.57 -15.7 3.8 85 -17.7 0.1 0
16:18 1003 29.62 832 24.57 -15.7 3.7 84 -17.8 -0.1 0
16:19 1003 29.62 832 24.57 -15.7 3.7 85 -17.8 -0 0
16:20 1003 29.62 832 24.57 -15.7 3.7 85 -17.7 0.1 0
16:21 1003 29.62 832 24.57 -15.7 3.7 84 -17.8 -0.1 0
16:22 1003 29.62 832 24.57 -15.7 3.7 84 -17.8 -0 0
16:23 1003 29.62 832 24.57 -15.8 3.7 85 -17.7 0.1 0
16:24 1003 29.62 832 24.57 -15.8 3.6 85 -17.8 -0 0
16:25 1003 29.62 832 24.57 -15.7 3.7 85 -17.7 0.2 0
16:26 1003 29.62 832 24.57 -15.8 3.7 85 -17.7 0.2 0
16:27 1003 29.62 832 24.57 -15.7 3.7 85 -17.8 0 0
16:28 1003 29.62 832 24.57 -15.8 3.6 85 -17.8 -0 0
16:29 1003 29.62 832 24.57 -15.8 3.5 85 -17.9 -0.1 0
16:30 1003 29.62 832 24.57 -15.8 3.5 85 -17.8 -0.1 0
16:31 1003 29.62 832 24.57 -15.8 3.5 85 -17.8 -0 0
16:32 1003 29.62 832 24.57 -15.8 3.5 85 -17.8 -0.1 0
16:33 1003 29.62 832 24.57 -15.8 3.5 85 -17.7 0.1 0
16:34 1003 29.62 832 24.57 -15.8 3.5 85 -17.8 -0 0
16:35 1003 29.62 832 24.57 -15.8 3.5 85 -17.9 -0.1 0
16:36 1003 29.62 832 24.57 -15.9 3.5 85 -17.8 -0.1 0
16:37 1003 29.62 832 24.57 -15.9 3.4 85 -17.9 -0.2 0
16:38 1003 29.62 832 24.57 -15.8 3.5 85 -17.8 -0.1 0
16:39 1003 29.62 832 24.57 -15.9 3.5 85 -17.8 -0.1 0
16:40 1003 29.62 832 24.57 -15.9 3.5 85 -17.9 -0.2 0
16:41 1003 29.62 832 24.57 -15.9 3.4 85 -17.9 -0.3 0
16:42 1003 29.62 832 24.57 -15.9 3.5 85 -17.8 -0.1 0
16:43 1003 29.62 832 24.57 -15.9 3.5 85 -17.8 -0.1 0
16:44 1003 29.62 832 24.57 -15.9 3.5 85 -17.8 -0.1 0
16:45 1003 29.62 832 24.57 -15.9 3.5 85 -17.9 -0.2 0
16:46 1003 29.62 832 24.57 -15.9 3.5 85 -17.8 -0.1 0
16:47 1003 29.62 832 24.57 -15.8 3.5 85 -17.8 -0.1 0
16:48 1003 29.62 832 24.57 -15.9 3.4 85 -17.8 -0.1 0
16:49 1003 29.62 832 24.57 -15.9 3.4 85 -17.8 -0.1 0
16:50 1003 29.62 832 24.57 -15.8 3.5 85 -17.8 -0 0
16:51 1003 29.62 832 24.57 -15.9 3.5 86 -17.8 0 0
16:52 1003 29.62 832 24.57 -15.9 3.5 85 -17.9 -0.1 0
16:53 1003 29.62 832 24.57 -15.9 3.5 85 -17.8 -0.1 0
16:54 1003 29.62 832 24.57 -15.9 3.4 85 -17.8 -0.1 0
16:55 1003 29.62 832 24.57 -15.9 3.5 85 -17.8 -0.1 0
16:56 1003 29.62 832 24.57 -15.8 3.5 85 -17.8 -0.1 0
16:57 1003 29.62 832 24.57 -15.9 3.4 85 -17.9 -0.2 0
16:58 1003 29.62 832 24.57 -15.9 3.4 85 -17.9 -0.2 0
16:59 1003 29.62 832 24.57 -15.9 3.5 85 -17.8 -0.1 0
17:00 1003 29.62 832 24.57 -15.9 3.4 85 -17.9 -0.2 0
17:01 1003 29.62 833 24.6 -15.9 3.4 84 -17.9 -0.3 0
17:02 1003 29.62 833 24.6 -15.9 3.4 85 -17.9 -0.3 0
17:03 1003 29.62 833 24.6 -15.9 3.3 85 -17.9 -0.3 0
17:04 1003 29.62 833 24.6 -15.9 3.3 85 -17.9 -0.3 0
17:05 1003 29.62 833 24.6 -16 3.2 84 -18.1 -0.5 0
17:06 1003 29.62 833 24.6 -16 3.2 85 -18 -0.4 0
17:07 1003 29.62 833 24.6 -16 3.2 85 -18 -0.3 0
17:08 1003 29.62 833 24.6 -16 3.2 85 -18 -0.4 0
17:09 1003 29.62 833 24.6 -16 3.1 85 -18.1 -0.5 0
17:10 1003 29.62 833 24.6 -16.1 3.1 84 -18.1 -0.6 0
17:11 1003 29.62 833 24.6 -16.1 3 84 -18.2 -0.7 0
17:12 1004 29.65 833 24.6 -16.1 2.9 84 -18.2 -0.7 0
17:13 1004 29.65 833 24.6 -16.1 3 85 -18.1 -0.6 0
17:14 1004 29.65 833 24.6 -16.1 3 85 -18.1 -0.6 0
17:15 1004 29.65 833 24.6 -16.1 3 85 -18.1 -0.6 0
17:16 1004 29.65 833 24.6 -16.1 3.1 85 -18.1 -0.6 0
17:17 1004 29.65 833 24.6 -16.1 3 85 -18.1 -0.5 0
17:18 1004 29.65 833 24.6 -16.1 3 85 -18.1 -0.6 0
17:19 1004 29.65 833 24.6 -16.1 3 85 -18.1 -0.6 0
17:20 1004 29.65 833 24.6 -16.1 3.1 85 -18.1 -0.6 0
17:21 1004 29.65 833 24.6 -16.1 3 85 -18.1 -0.6 0
17:22 1004 29.65 833 24.6 -16.1 3 84 -18.2 -0.7 0
17:23 1004 29.65 833 24.6 -16.1 3 85 -18.1 -0.6 0
17:24 1004 29.65 833 24.6 -16.1 3 85 -18.1 -0.5 0
17:25 1004 29.65 833 24.6 -16.1 2.9 85 -18.1 -0.5 0
17:26 1004 29.65 833 24.6 -16.1 2.9 85 -18.1 -0.6 0
17:27 1004 29.65 833 24.6 -16.2 2.9 85 -18.2 -0.7 0
17:28 1004 29.65 833 24.6 -16.2 2.9 85 -18.2 -0.7 0
17:29 1004 29.65 833 24.6 -16.2 2.8 85 -18.2 -0.7 0
17:30 1004 29.65 833 24.6 -16.2 2.8 85 -18.1 -0.6 0
17:31 1004 29.65 833 24.6 -16.2 2.8 85 -18.2 -0.7 0
17:32 1004 29.65 833 24.6 -16.3 2.8 85 -18.2 -0.7 0
17:33 1004 29.65 833 24.6 -16.2 2.8 85 -18.2 -0.7 0
17:34 1004 29.65 833 24.6 -16.3 2.8 85 -18.2 -0.8 0
17:35 1004 29.65 833 24.6 -16.3 2.8 85 -18.2 -0.7 0
17:36 1004 29.65 833 24.6 -16.3 2.7 85 -18.3 -0.9 0
17:37 1004 29.65 833 24.6 -16.3 2.7 85 -18.3 -0.9 0
17:38 1004 29.65 833 24.6 -16.3 2.6 85 -18.3 -0.9 0
17:39 1004 29.65 833 24.6 -16.3 2.6 85 -18.3 -1 0
17:40 1004 29.65 833 24.6 -16.3 2.7 85 -18.3 -0.9 0
17:41 1004 29.65 833 24.6 -16.4 2.6 85 -18.3 -0.9 0
17:42 1004 29.65 833 24.6 -16.4 2.6 85 -18.3 -1 0
17:43 1004 29.65 833 24.6 -16.4 2.5 85 -18.4 -1.1 0
17:44 1004 29.65 833 24.6 -16.4 2.5 85 -18.4 -1.1 0
17:45 1004 29.65 833 24.6 -16.4 2.5 85 -18.3 -1 0
17:46 1004 29.65 833 24.6 -16.4 2.5 85 -18.4 -1.1 0
17:47 1004 29.65 833 24.6 -16.4 2.5 85 -18.3 -1 0
17:48 1004 29.65 833 24.6 -16.4 2.4 84 -18.5 -1.3 0
17:49 1004 29.65 833 24.6 -16.5 2.4 84 -18.6 -1.4 0
17:50 1004 29.65 833 24.6 -16.5 2.3 84 -18.6 -1.5 0
17:51 1004 29.65 833 24.6 -16.6 2.2 84 -18.7 -1.6 0
17:52 1004 29.65 833 24.6 -16.6 2.1 84 -18.6 -1.6 0
17:53 1004 29.65 833 24.6 -16.6 2.1 85 -18.6 -1.5 0
17:54 1004 29.65 833 24.6 -16.6 2.1 85 -18.6 -1.5 0
17:55 1004 29.65 833 24.6 -16.6 2.1 85 -18.6 -1.6 0
17:56 1004 29.65 833 24.6 -16.7 2 84 -18.8 -1.8 0
17:57 1004 29.65 833 24.6 -16.7 1.9 84 -18.9 -2 0
17:58 1004 29.65 833 24.6 -16.8 1.8 84 -18.9 -2.1 0
17:59 1004 29.65 833 24.6 -16.8 1.7 84 -18.9 -2 0
18:00 1004 29.65 833 24.6 -16.8 1.7 84 -18.9 -2.1 0
18:01 1004 29.65 833 24.6 -16.8 1.7 84 -18.9 -1.9 0
18:02 1004 29.65 833 24.6 -16.8 1.7 84 -18.9 -2 0
18:03 1004 29.65 833 24.6 -16.9 1.6 84 -18.9 -2.1 0
18:04 1004 29.65 833 24.6 -16.9 1.7 84 -18.9 -2.1 0
18:05 1004 29.65 833 24.6 -16.9 1.7 84 -18.9 -2 0
18:06 1004 29.65 833 24.6 -16.8 1.7 84 -19 -2.1 0
18:07 1004 29.65 834 24.63 -16.8 1.7 84 -18.9 -2.1 0
18:08 1004 29.65 833 24.6 -16.8 1.8 84 -18.9 -2 0
18:09 1004 29.65 834 24.63 -16.8 1.7 84 -18.9 -2 0
18:10 1004 29.65 833 24.6 -16.8 1.7 84 -18.9 -2 0
18:11 1004 29.65 833 24.6 -16.8 1.7 84 -18.9 -2 0
18:12 1004 29.65 834 24.63 -16.8 1.7 85 -18.8 -1.9 0
18:13 1004 29.65 834 24.63 -16.8 1.7 85 -18.8 -1.9 0
18:14 1004 29.65 834 24.63 -16.9 1.7 85 -18.8 -1.9 0
18:15 1004 29.65 834 24.63 -16.8 1.7 85 -18.8 -1.8 0
18:16 1004 29.65 834 24.63 -16.8 1.7 85 -18.8 -1.9 0
18:17 1004 29.65 834 24.63 -16.8 1.7 85 -18.8 -1.9 0
18:18 1004 29.65 834 24.63 -16.8 1.7 85 -18.8 -1.9 0
18:19 1004 29.65 834 24.63 -16.8 1.7 84 -18.9 -1.9 0
18:20 1004 29.65 834 24.63 -16.8 1.8 84 -18.9 -2 0
18:21 1005 29.68 834 24.63 -16.8 1.8 84 -18.8 -1.9 0
18:22 1005 29.68 834 24.63 -16.8 1.7 84 -18.9 -2.1 0
18:23 1005 29.68 834 24.63 -16.9 1.7 84 -19 -2.2 0
18:24 1005 29.68 834 24.63 -16.9 1.6 84 -19 -2.2 0
18:25 1005 29.68 834 24.63 -16.9 1.5 84 -19.1 -2.3 0
18:26 1005 29.68 834 24.63 -16.9 1.5 84 -19.1 -2.3 0
18:27 1005 29.68 834 24.63 -17 1.5 84 -19.1 -2.4 0
18:28 1005 29.68 834 24.63 -16.9 1.5 84 -19 -2.3 0
18:29 1005 29.68 834 24.63 -17 1.5 84 -19.1 -2.3 0
18:30 1005 29.68 834 24.63 -17 1.4 84 -19.1 -2.4 0
18:31 1005 29.68 834 24.63 -17 1.4 84 -19.1 -2.4 0
18:32 1005 29.68 834 24.63 -17 1.3 84 -19.2 -2.5 0
18:33 1005 29.68 834 24.63 -17 1.4 84 -19.1 -2.5 0
18:34 1005 29.68 834 24.63 -17 1.4 84 -19.1 -2.4 0
18:35 1005 29.68 834 24.63 -17.1 1.3 84 -19.2 -2.5 0
18:36 1005 29.68 834 24.63 -17.1 1.3 84 -19.2 -2.5 0
18:37 1005 29.68 834 24.63 -17.1 1.2 84 -19.2 -2.6 0
18:38 1005 29.68 834 24.63 -17.1 1.2 84 -19.2 -2.6 0
18:39 1005 29.68 834 24.63 -17.1 1.2 84 -19.2 -2.6 0
18:40 1005 29.68 834 24.63 -17.1 1.1 84 -19.2 -2.6 0
18:41 1005 29.68 834 24.63 -17.1 1.2 84 -19.2 -2.6 0
18:42 1005 29.68 834 24.63 -17.1 1.1 84 -19.2 -2.6 0
18:43 1005 29.68 834 24.63 -17.2 1.1 84 -19.3 -2.7 0
18:44 1005 29.68 834 24.63 -17.2 1.1 84 -19.3 -2.8 0
18:45 1005 29.68 834 24.63 -17.2 1.1 84 -19.3 -2.8 0
18:46 1005 29.68 834 24.63 -17.2 1.1 84 -19.3 -2.8 0
18:47 1005 29.68 834 24.63 -17.2 1 84 -19.4 -2.9 0
18:48 1005 29.68 834 24.63 -17.2 1 84 -19.4 -2.9 0
18:49 1005 29.68 834 24.63 -17.3 0.9 84 -19.4 -3 0
18:50 1005 29.68 834 24.63 -17.3 0.9 83 -19.4 -3 0
18:51 1005 29.68 834 24.63 -17.3 1 83 -19.5 -3 0
18:52 1005 29.68 834 24.63 -17.3 0.9 83 -19.5 -3.2 0
18:53 1005 29.68 834 24.63 -17.3 1 83 -19.5 -3 0
18:54 1005 29.68 834 24.63 -17.3 0.9 83 -19.5 -3.1 0
18:55 1005 29.68 834 24.63 -17.3 0.9 83 -19.5 -3.1 0
18:56 1005 29.68 834 24.63 -17.3 0.8 84 -19.5 -3.1 0
18:57 1005 29.68 834 24.63 -17.3 0.9 83 -19.5 -3.1 0
18:58 1005 29.68 834 24.63 -17.3 0.8 83 -19.5 -3.1 0
18:59 1005 29.68 834 24.63 -17.3 0.8 84 -19.5 -3.1 0
19:00 1005 29.68 834 24.63 -17.4 0.8 84 -19.5 -3.1 0
19:01 1005 29.68 834 24.63 -17.4 0.8 84 -19.5 -3.1 0
19:02 1005 29.68 834 24.63 -17.4 0.8 84 -19.5 -3.1 0
19:03 1005 29.68 834 24.63 -17.4 0.7 83 -19.6 -3.2 0
19:04 1005 29.68 835 24.66 -17.4 0.7 83 -19.6 -3.2 0
19:05 1005 29.68 835 24.66 -17.4 0.6 84 -19.6 -3.2 0
19:06 1005 29.68 835 24.66 -17.4 0.7 84 -19.5 -3.2 0
19:07 1005 29.68 835 24.66 -17.4 0.7 84 -19.6 -3.2 0
19:08 1005 29.68 835 24.66 -17.4 0.7 84 -19.5 -3.2 0
19:09 1005 29.68 835 24.66 -17.4 0.7 83 -19.6 -3.2 0
19:10 1005 29.68 835 24.66 -17.4 0.6 83 -19.6 -3.3 0
19:11 1005 29.68 835 24.66 -17.5 0.6 83 -19.7 -3.4 0
19:12 1005 29.68 835 24.66 -17.5 0.5 83 -19.7 -3.4 0
19:13 1006 29.71 835 24.66 -17.5 0.5 83 -19.7 -3.5 0
19:14 1005 29.68 835 24.66 -17.5 0.5 84 -19.7 -3.4 0
19:15 1006 29.71 835 24.66 -17.5 0.5 84 -19.7 -3.4 0
19:16 1006 29.71 835 24.66 -17.6 0.4 83 -19.7 -3.5 0
19:17 1006 29.71 835 24.66 -17.6 0.4 84 -19.7 -3.5 0
19:18 1006 29.71 835 24.66 -17.6 0.4 84 -19.7 -3.4 0
19:19 1006 29.71 835 24.66 -17.6 0.4 84 -19.7 -3.4 0
19:20 1006 29.71 835 24.66 -17.6 0.4 84 -19.7 -3.4 0
19:21 1006 29.71 835 24.66 -17.6 0.3 84 -19.7 -3.5 0
19:22 1006 29.71 835 24.66 -17.6 0.4 84 -19.7 -3.5 0
19:23 1006 29.71 835 24.66 -17.6 0.3 84 -19.8 -3.6 0
19:24 1006 29.71 835 24.66 -17.6 0.4 84 -19.7 -3.5 0
19:25 1006 29.71 835 24.66 -17.6 0.3 84 -19.8 -3.6 0
19:26 1006 29.71 835 24.66 -17.6 0.3 83 -19.8 -3.6 0
19:27 1006 29.71 835 24.66 -17.6 0.3 84 -19.8 -3.6 0
19:28 1006 29.71 835 24.66 -17.6 0.3 84 -19.7 -3.5 0
19:29 1006 29.71 835 24.66 -17.6 0.3 84 -19.7 -3.5 0
19:30 1006 29.71 835 24.66 -17.6 0.3 84 -19.7 -3.5 0
19:31 1006 29.71 835 24.66 -17.6 0.2 84 -19.8 -3.6 0
19:32 1006 29.71 835 24.66 -17.6 0.3 84 -19.7 -3.5 0
19:33 1006 29.71 835 24.66 -17.6 0.3 84 -19.7 -3.5 0
19:34 1006 29.71 835 24.66 -17.6 0.3 84 -19.7 -3.5 0
19:35 1006 29.71 835 24.66 -17.6 0.3 84 -19.7 -3.5 0
19:36 1006 29.71 835 24.66 -17.6 0.2 84 -19.7 -3.5 0
19:37 1006 29.71 835 24.66 -17.6 0.3 84 -19.7 -3.5 0
19:38 1006 29.71 835 24.66 -17.6 0.3 84 -19.7 -3.5 0
19:39 1006 29.71 835 24.66 -17.6 0.3 84 -19.7 -3.5 0
19:40 1006 29.71 835 24.66 -17.6 0.3 84 -19.7 -3.4 0
19:41 1006 29.71 835 24.66 -17.6 0.3 84 -19.7 -3.4 0
19:42 1006 29.71 835 24.66 -17.6 0.4 84 -19.6 -3.3 0
19:43 1006 29.71 835 24.66 -17.6 0.4 84 -19.6 -3.3 0
19:44 1006 29.71 835 24.66 -17.6 0.3 84 -19.7 -3.4 0
19:45 1006 29.71 835 24.66 -17.6 0.3 84 -19.6 -3.3 0
19:46 1006 29.71 835 24.66 -17.6 0.3 84 -19.6 -3.3 0
19:47 1006 29.71 835 24.66 -17.6 0.3 83 -19.8 -3.6 0
19:48 1006 29.71 835 24.66 -17.7 0.1 83 -19.9 -3.8 0
19:49 1006 29.71 835 24.66 -17.8 0 83 -19.9 -3.9 0
19:50 1006 29.71 835 24.66 -17.8 -0 84 -19.9 -3.9 0
19:51 1006 29.71 835 24.66 -17.8 -0.1 83 -20 -4 0
19:52 1006 29.71 835 24.66 -17.9 -0.2 83 -20 -4.1 0
19:53 1006 29.71 835 24.66 -17.9 -0.3 84 -20.1 -4.1 0
19:54 1006 29.71 835 24.66 -17.9 -0.3 83 -20.1 -4.2 0
19:55 1006 29.71 835 24.66 -17.9 -0.3 84 -20.1 -4.2 0
19:56 1006 29.71 835 24.66 -18 -0.3 84 -20.1 -4.2 0
19:57 1006 29.71 835 24.66 -18 -0.4 84 -20.1 -4.2 0
19:58 1006 29.71 835 24.66 -18 -0.4 84 -20.1 -4.2 0
19:59 1006 29.71 835 24.66 -18 -0.4 83 -20.1 -4.3 0
20:00 1006 29.71 835 24.66 -18 -0.4 83 -20.2 -4.3 0
20:01 1006 29.71 835 24.66 -18 -0.4 84 -20.2 -4.3 0
20:02 1006 29.71 835 24.66 -18.1 -0.5 84 -20.2 -4.4 0
20:03 1006 29.71 835 24.66 -18.1 -0.5 83 -20.3 -4.5 0
20:04 1006 29.71 835 24.66 -18.1 -0.5 84 -20.2 -4.4 0
20:05 1006 29.71 835 24.66 -18.1 -0.5 83 -20.2 -4.4 0
20:06 1006 29.71 835 24.66 -18.1 -0.5 83 -20.2 -4.4 0
20:07 1006 29.71 835 24.66 -18.1 -0.6 84 -20.2 -4.4 0
20:08 1006 29.71 835 24.66 -18.1 -0.6 84 -20.2 -4.4 0
20:09 1006 29.71 835 24.66 -18.1 -0.6 84 -20.2 -4.4 0
20:10 1006 29.71 835 24.66 -18.1 -0.5 83 -20.3 -4.5 0
20:11 1006 29.71 835 24.66 -18.1 -0.6 84 -20.3 -4.5 0
20:12 1006 29.71 835 24.66 -18.1 -0.6 84 -20.3 -4.5 0
20:13 1006 29.71 835 24.66 -18.1 -0.6 84 -20.2 -4.4 0
20:14 1006 29.71 835 24.66 -18.1 -0.6 84 -20.3 -4.5 0
20:15 1006 29.71 835 24.66 -18.1 -0.7 84 -20.3 -4.5 0
20:16 1006 29.71 835 24.66 -18.1 -0.7 83 -20.3 -4.6 0
20:17 1006 29.71 835 24.66 -18.2 -0.7 83 -20.3 -4.6 0
20:18 1006 29.71 835 24.66 -18.2 -0.7 83 -20.3 -4.6 0
20:19 1006 29.71 835 24.66 -18.2 -0.7 84 -20.3 -4.6 0
20:20 1006 29.71 835 24.66 -18.2 -0.7 83 -20.4 -4.7 0
20:21 1006 29.71 835 24.66 -18.2 -0.7 83 -20.3 -4.6 0
20:22 1006 29.71 835 24.66 -18.2 -0.7 83 -20.4 -4.6 0
20:23 1006 29.71 835 24.66 -18.2 -0.7 83 -20.3 -4.6 0
20:24 1006 29.71 835 24.66 -18.2 -0.7 83 -20.4 -4.6 0
20:25 1006 29.71 835 24.66 -18.2 -0.7 83 -20.4 -4.7 0
20:26 1006 29.71 835 24.66 -18.2 -0.8 83 -20.4 -4.7 0
20:27 1006 29.71 835 24.66 -18.2 -0.8 84 -20.4 -4.6 0
20:28 1006 29.71 835 24.66 -18.2 -0.8 83 -20.4 -4.7 0
20:29 1006 29.71 835 24.66 -18.2 -0.8 83 -20.4 -4.8 0
20:30 1006 29.71 835 24.66 -18.3 -0.9 83 -20.4 -4.8 0
20:31 1006 29.71 835 24.66 -18.3 -0.9 83 -20.5 -4.9 0
20:32 1006 29.71 835 24.66 -18.3 -0.9 83 -20.5 -4.9 0
20:33 1006 29.71 835 24.66 -18.3 -0.9 83 -20.5 -4.8 0
20:34 1006 29.71 835 24.66 -18.3 -0.9 83 -20.5 -4.9 0
20:35 1006 29.71 835 24.66 -18.3 -0.9 84 -20.4 -4.8 0
20:36 1006 29.71 835 24.66 -18.3 -0.9 84 -20.4 -4.7 0
20:37 1006 29.71 835 24.66 -18.3 -0.9 84 -20.4 -4.8 0
20:38 1006 29.71 835 24.66 -18.3 -0.9 83 -20.5 -4.9 0
20:39 1006 29.71 835 24.66 -18.3 -0.9 83 -20.5 -4.9 0
20:40 1006 29.71 835 24.66 -18.3 -0.9 83 -20.5 -4.9 0
20:41 1006 29.71 835 24.66 -18.3 -0.9 83 -20.5 -4.9 0
20:42 1006 29.71 835 24.66 -18.3 -0.9 83 -20.5 -4.8 0
20:43 1006 29.71 835 24.66 -18.3 -0.9 83 -20.5 -4.9 0
20:44 1006 29.71 835 24.66 -18.3 -0.9 83 -20.5 -4.9 0
20:45 1006 29.71 835 24.66 -18.3 -0.9 83 -20.5 -5 0
20:46 1006 29.71 835 24.66 -18.3 -0.9 83 -20.5 -4.9 0
20:47 1006 29.71 835 24.66 -18.3 -0.9 83 -20.5 -4.9 0
20:48 1006 29.71 835 24.66 -18.3 -0.9 83 -20.5 -4.8 0
20:49 1006 29.71 835 24.66 -18.2 -0.8 83 -20.4 -4.7 0
20:50 1006 29.71 835 24.66 -18.3 -0.9 83 -20.5 -4.8 0
20:51 1006 29.71 835 24.66 -18.3 -0.9 83 -20.4 -4.8 0
20:52 1006 29.71 835 24.66 -18.3 -0.9 84 -20.4 -4.7 0
20:53 1006 29.71 835 24.66 -18.2 -0.8 83 -20.4 -4.7 0
20:54 1006 29.71 835 24.66 -18.3 -0.9 84 -20.4 -4.7 0
20:55 1006 29.71 835 24.66 -18.3 -0.9 84 -20.4 -4.7 0
20:56 1006 29.71 836 24.69 -18.2 -0.8 84 -20.4 -4.7 0
20:57 1006 29.71 836 24.69 -18.3 -0.9 83 -20.4 -4.8 0
20:58 1006 29.71 836 24.69 -18.2 -0.8 84 -20.4 -4.6 0
20:59 1006 29.71 836 24.69 -18.2 -0.8 84 -20.3 -4.6 0
21:00 1006 29.71 836 24.69 -18.2 -0.8 84 -20.3 -4.6 0
21:01 1006 29.71 836 24.69 -18.2 -0.8 84 -20.3 -4.6 0
21:02 1006 29.71 836 24.69 -18.2 -0.8 84 -20.3 -4.6 0
21:03 1006 29.71 836 24.69 -18.2 -0.8 84 -20.4 -4.6 0
21:04 1006 29.71 836 24.69 -18.2 -0.8 84 -20.3 -4.6 0
21:05 1006 29.71 836 24.69 -18.2 -0.8 83 -20.4 -4.7 0
21:06 1006 29.71 836 24.69 -18.2 -0.8 84 -20.3 -4.6 0
21:07 1006 29.71 836 24.69 -18.2 -0.8 84 -20.4 -4.6 0
21:08 1006 29.71 836 24.69 -18.2 -0.8 83 -20.4 -4.6 0
21:09 1006 29.71 836 24.69 -18.2 -0.8 83 -20.4 -4.7 0
21:10 1006 29.71 836 24.69 -18.2 -0.8 83 -20.4 -4.7 0
21:11 1006 29.71 836 24.69 -18.2 -0.8 84 -20.4 -4.6 0
21:12 1006 29.71 836 24.69 -18.3 -0.9 83 -20.4 -4.7 0
21:13 1006 29.71 836 24.69 -18.3 -0.9 83 -20.4 -4.8 0
21:14 1006 29.71 836 24.69 -18.3 -0.9 83 -20.5 -4.8 0
21:15 1006 29.71 836 24.69 -18.3 -0.9 83 -20.5 -4.8 0
21:16 1006 29.71 836 24.69 -18.3 -1 83 -20.5 -5 0
21:17 1006 29.71 836 24.69 -18.3 -1 83 -20.6 -5.1 0
21:18 1006 29.71 836 24.69 -18.4 -1 82 -20.7 -5.3 0
21:19 1006 29.71 836 24.69 -18.4 -1.2 82 -20.8 -5.5 0
21:20 1006 29.71 836 24.69 -18.4 -1.2 82 -20.8 -5.5 0
21:21 1007 29.74 836 24.69 -18.5 -1.3 82 -20.8 -5.4 0
21:22 1007 29.74 836 24.69 -18.5 -1.3 82 -20.8 -5.5 0
21:23 1007 29.74 836 24.69 -18.5 -1.3 82 -20.8 -5.4 0
21:24 1007 29.74 836 24.69 -18.5 -1.4 83 -20.8 -5.4 0
21:25 1007 29.74 836 24.69 -18.5 -1.4 83 -20.8 -5.4 0
21:26 1007 29.74 836 24.69 -18.6 -1.4 83 -20.8 -5.5 0
21:27 1007 29.74 836 24.69 -18.6 -1.5 83 -20.8 -5.5 0
21:28 1007 29.74 836 24.69 -18.6 -1.4 83 -20.8 -5.4 0
21:29 1007 29.74 836 24.69 -18.6 -1.5 83 -20.8 -5.5 0
21:30 1007 29.74 836 24.69 -18.6 -1.5 83 -20.8 -5.5 0
21:31 1007 29.74 836 24.69 -18.6 -1.5 82 -20.9 -5.7 0
21:32 1007 29.74 836 24.69 -18.6 -1.5 81 -21.1 -5.9 0
21:33 1007 29.74 836 24.69 -18.7 -1.6 81 -21.1 -6.1 0
21:34 1007 29.74 836 24.69 -18.7 -1.7 81 -21.2 -6.1 0
21:35 1007 29.74 836 24.69 -18.8 -1.8 81 -21.2 -6.2 0
21:36 1007 29.74 836 24.69 -18.8 -1.8 81 -21.3 -6.3 0
21:37 1007 29.74 836 24.69 -18.8 -1.8 81 -21.3 -6.3 0
21:38 1007 29.74 836 24.69 -18.8 -1.8 81 -21.3 -6.3 0
21:39 1007 29.74 836 24.69 -18.8 -1.8 81 -21.3 -6.3 0
21:40 1007 29.74 836 24.69 -18.8 -1.9 81 -21.3 -6.3 0
21:41 1007 29.74 836 24.69 -18.8 -1.9 81 -21.3 -6.3 0
21:42 1007 29.74 836 24.69 -18.9 -2 81 -21.4 -6.4 0
21:43 1007 29.74 836 24.69 -18.9 -1.9 81 -21.3 -6.4 0
21:44 1007 29.74 836 24.69 -18.9 -1.9 81 -21.3 -6.4 0
21:45 1007 29.74 836 24.69 -18.9 -1.9 81 -21.4 -6.4 0
21:46 1007 29.74 836 24.69 -18.9 -1.9 81 -21.4 -6.5 0
21:47 1007 29.74 836 24.69 -18.9 -1.9 81 -21.4 -6.4 0
21:48 1007 29.74 836 24.69 -18.9 -1.9 81 -21.4 -6.4 0
21:49 1007 29.74 836 24.69 -18.9 -2 81 -21.4 -6.5 0
21:50 1007 29.74 836 24.69 -18.9 -1.9 81 -21.4 -6.5 0
21:51 1007 29.74 836 24.69 -18.8 -1.9 81 -21.4 -6.5 0
21:52 1007 29.74 836 24.69 -18.8 -1.9 81 -21.4 -6.4 0
21:53 1007 29.74 836 24.69 -18.9 -1.9 81 -21.4 -6.5 0
21:54 1007 29.74 836 24.69 -18.9 -1.9 81 -21.4 -6.5 0
21:55 1007 29.74 836 24.69 -18.8 -1.9 81 -21.4 -6.4 0
21:56 1007 29.74 836 24.69 -18.8 -1.9 81 -21.4 -6.4 0
21:57 1007 29.74 836 24.69 -18.8 -1.9 81 -21.3 -6.4 0
21:58 1007 29.74 836 24.69 -18.8 -1.9 81 -21.3 -6.3 0
21:59 1007 29.74 836 24.69 -18.8 -1.8 81 -21.3 -6.3 0
22:00 1007 29.74 836 24.69 -18.8 -1.9 81 -21.3 -6.4 0
22:01 1007 29.74 836 24.69 -18.8 -1.8 81 -21.3 -6.3 0
22:02 1007 29.74 836 24.69 -18.8 -1.8 81 -21.3 -6.4 0
22:03 1007 29.74 836 24.69 -18.8 -1.8 80 -21.3 -6.4 0
22:04 1007 29.74 836 24.69 -18.8 -1.8 81 -21.4 -6.4 0
22:05 1007 29.74 836 24.69 -18.8 -1.8 81 -21.3 -6.4 0
22:06 1007 29.74 836 24.69 -18.8 -1.8 80 -21.4 -6.5 0
22:07 1007 29.74 836 24.69 -18.8 -1.9 80 -21.5 -6.6 0
22:08 1007 29.74 836 24.69 -18.8 -1.9 80 -21.5 -6.6 0
22:09 1007 29.74 836 24.69 -18.8 -1.9 80 -21.4 -6.6 0
22:10 1007 29.74 836 24.69 -18.9 -1.9 80 -21.4 -6.6 0
22:11 1007 29.74 836 24.69 -18.8 -1.9 81 -21.4 -6.5 0
22:12 1007 29.74 836 24.69 -18.9 -2 80 -21.6 -6.8 0
22:13 1007 29.74 836 24.69 -18.9 -2 80 -21.6 -6.8 0
22:14 1007 29.74 836 24.69 -19 -2.1 80 -21.6 -6.9 0
22:15 1007 29.74 836 24.69 -18.9 -2.1 80 -21.5 -6.8 0
22:16 1007 29.74 836 24.69 -19 -2.2 80 -21.6 -6.8 0
22:17 1007 29.74 836 24.69 -19 -2.2 80 -21.6 -6.9 0
22:18 1007 29.74 836 24.69 -19 -2.2 81 -21.6 -6.8 0
22:19 1007 29.74 836 24.69 -19 -2.2 80 -21.6 -6.9 0
22:20 1007 29.74 836 24.69 -19 -2.3 81 -21.6 -6.9 0
22:21 1007 29.74 836 24.69 -19 -2.2 80 -21.6 -6.9 0
22:22 1007 29.74 836 24.69 -19.1 -2.3 81 -21.6 -6.9 0
22:23 1007 29.74 836 24.69 -19.1 -2.3 81 -21.6 -6.9 0
22:24 1007 29.74 836 24.69 -19.1 -2.4 81 -21.6 -6.9 0
22:25 1007 29.74 836 24.69 -19.1 -2.4 81 -21.6 -6.9 0
22:26 1007 29.74 836 24.69 -19.1 -2.4 81 -21.6 -6.9 0
22:27 1007 29.74 836 24.69 -19.1 -2.4 81 -21.6 -6.8 0
22:28 1007 29.74 836 24.69 -19.1 -2.4 81 -21.6 -6.9 0
22:29 1007 29.74 836 24.69 -19.1 -2.5 81 -21.6 -6.9 0
22:30 1007 29.74 836 24.69 -19.1 -2.4 81 -21.6 -6.8 0
22:31 1007 29.74 836 24.69 -19.1 -2.4 82 -21.5 -6.8 0
22:32 1007 29.74 836 24.69 -19.1 -2.4 82 -21.5 -6.8 0
22:33 1007 29.74 836 24.69 -19.1 -2.5 82 -21.6 -6.8 0
22:34 1007 29.74 836 24.69 -19.1 -2.4 82 -21.5 -6.8 0
22:35 1007 29.74 836 24.69 -19.1 -2.4 82 -21.5 -6.7 0
22:36 1007 29.74 836 24.69 -19.1 -2.4 82 -21.5 -6.7 0
22:37 1007 29.74 836 24.69 -19.1 -2.4 82 -21.5 -6.6 0
22:38 1007 29.74 836 24.69 -19.1 -2.3 82 -21.4 -6.6 0
22:39 1007 29.74 836 24.69 -19 -2.3 82 -21.4 -6.5 0
22:40 1007 29.74 836 24.69 -19.1 -2.3 82 -21.4 -6.5 0
22:41 1007 29.74 836 24.69 -19.1 -2.3 82 -21.4 -6.5 0
22:42 1007 29.74 836 24.69 -19.1 -2.3 82 -21.4 -6.5 0
22:43 1007 29.74 836 24.69 -19 -2.2 82 -21.3 -6.4 0
22:44 1007 29.74 836 24.69 -19.1 -2.3 82 -21.4 -6.4 0
22:45 1007 29.74 836 24.69 -19 -2.3 82 -21.3 -6.4 0
22:46 1007 29.74 836 24.69 -19 -2.3 82 -21.3 -6.4 0
22:47 1007 29.74 836 24.69 -19.1 -2.3 82 -21.4 -6.5 0
22:48 1007 29.74 836 24.69 -19.1 -2.3 82 -21.3 -6.4 0
22:49 1007 29.74 836 24.69 -19 -2.3 83 -21.3 -6.4 0
22:50 1007 29.74 836 24.69 -19 -2.2 83 -21.3 -6.3 0
22:51 1007 29.74 836 24.69 -19.1 -2.3 83 -21.3 -6.4 0
22:52 1007 29.74 836 24.69 -19 -2.2 83 -21.3 -6.3 0
22:53 1007 29.74 836 24.69 -19 -2.3 82 -21.3 -6.4 0
22:54 1007 29.74 836 24.69 -19 -2.3 83 -21.3 -6.3 0
22:55 1007 29.74 836 24.69 -19 -2.2 83 -21.3 -6.3 0
22:56 1007 29.74 836 24.69 -19 -2.2 82 -21.3 -6.3 0
22:57 1007 29.74 836 24.69 -19 -2.2 82 -21.3 -6.4 0
22:58 1007 29.74 836 24.69 -19 -2.2 82 -21.3 -6.4 0
22:59 1007 29.74 837 24.72 -19 -2.2 82 -21.3 -6.3 0
23:00 1007 29.74 836 24.69 -19 -2.2 82 -21.3 -6.4 0
23:01 1007 29.74 836 24.69 -19 -2.2 82 -21.3 -6.4 0
23:02 1007 29.74 837 24.72 -19 -2.2 82 -21.3 -6.4 0
23:03 1007 29.74 837 24.72 -19 -2.1 82 -21.3 -6.3 0
23:04 1007 29.74 837 24.72 -19 -2.1 82 -21.3 -6.4 0
23:05 1007 29.74 837 24.72 -19 -2.1 82 -21.3 -6.4 0
23:06 1007 29.74 837 24.72 -19 -2.1 82 -21.3 -6.4 0
23:07 1007 29.74 837 24.72 -19 -2.1 82 -21.3 -6.3 0
23:08 1007 29.74 837 24.72 -19 -2.1 82 -21.3 -6.4 0
23:09 1007 29.74 837 24.72 -19 -2.1 82 -21.4 -6.4 0
23:10 1007 29.74 837 24.72 -18.9 -2.1 82 -21.4 -6.4 0
23:11 1007 29.74 837 24.72 -18.9 -2 82 -21.3 -6.4 0
23:12 1007 29.74 837 24.72 -18.9 -2.1 82 -21.3 -6.4 0
23:13 1007 29.74 837 24.72 -18.9 -2.1 81 -21.4 -6.5 0
23:14 1007 29.74 837 24.72 -18.9 -2 81 -21.3 -6.4 0
23:15 1007 29.74 837 24.72 -18.9 -2 81 -21.3 -6.4 0
23:16 1007 29.74 837 24.72 -18.9 -2.1 81 -21.4 -6.4 0
23:17 1007 29.74 837 24.72 -18.9 -2 82 -21.3 -6.4 0
23:18 1007 29.74 837 24.72 -18.9 -2 82 -21.3 -6.3 0
23:19 1007 29.74 837 24.72 -18.9 -2 82 -21.3 -6.4 0
23:20 1007 29.74 837 24.72 -18.9 -2 82 -21.3 -6.3 0
23:21 1007 29.74 837 24.72 -18.9 -2 82 -21.3 -6.3 0
23:22 1007 29.74 837 24.72 -18.8 -1.9 82 -21.2 -6.2 0
23:23 1007 29.74 837 24.72 -18.8 -1.9 82 -21.2 -6.2 0
23:24 1007 29.74 837 24.72 -18.8 -1.9 82 -21.2 -6.2 0
23:25 1007 29.74 837 24.72 -18.8 -1.9 81 -21.3 -6.3 0
23:26 1008 29.77 837 24.72 -18.8 -1.9 82 -21.3 -6.3 0
23:27 1008 29.77 837 24.72 -18.8 -1.9 82 -21.2 -6.2 0
23:28 1008 29.77 837 24.72 -18.8 -1.9 82 -21.2 -6.2 0
23:29 1008 29.77 837 24.72 -18.8 -1.9 81 -21.3 -6.3 0
23:30 1008 29.77 837 24.72 -18.8 -1.8 81 -21.2 -6.2 0
23:31 1007 29.74 837 24.72 -18.8 -1.8 81 -21.3 -6.3 0
23:32 1008 29.77 837 24.72 -18.8 -1.8 81 -21.3 -6.3 0
23:33 1008 29.77 837 24.72 -18.8 -1.8 81 -21.2 -6.2 0
23:34 1008 29.77 837 24.72 -18.8 -1.8 81 -21.2 -6.2 0
23:35 1008 29.77 837 24.72 -18.8 -1.8 81 -21.3 -6.3 0
23:36 1008 29.77 837 24.72 -18.7 -1.7 81 -21.3 -6.3 0
23:37 1007 29.74 837 24.72 -18.7 -1.7 81 -21.3 -6.3 0
23:38 1007 29.74 837 24.72 -18.8 -1.8 81 -21.3 -6.3 0
23:39 1007 29.74 837 24.72 -18.8 -1.8 81 -21.3 -6.3 0
23:40 1008 29.77 837 24.72 -18.7 -1.7 81 -21.3 -6.3 0
23:41 1007 29.74 837 24.72 -18.7 -1.7 81 -21.3 -6.4 0
23:42 1007 29.74 837 24.72 -18.7 -1.7 81 -21.3 -6.3 0
23:43 1007 29.74 837 24.72 -18.8 -1.8 81 -21.3 -6.4 0
23:44 1007 29.74 837 24.72 -18.8 -1.8 80 -21.4 -6.5 0
23:45 1007 29.74 837 24.72 -18.8 -1.9 80 -21.4 -6.6 0
23:46 1007 29.74 837 24.72 -18.9 -2 80 -21.5 -6.8 0
23:47 1007 29.74 837 24.72 -18.9 -2 81 -21.5 -6.6 0
23:48 1007 29.74 837 24.72 -19 -2.1 80 -21.5 -6.8 0
23:49 1007 29.74 837 24.72 -19 -2.2 80 -21.6 -6.8 0
23:50 1007 29.74 837 24.72 -19 -2.2 80 -21.6 -6.8 0
23:51 1007 29.74 837 24.72 -19 -2.2 81 -21.5 -6.7 0
23:52 1007 29.74 837 24.72 -19 -2.2 81 -21.5 -6.7 0
23:53 1007 29.74 837 24.72 -19 -2.3 81 -21.5 -6.8 0
23:54 1007 29.74 837 24.72 -19 -2.2 81 -21.5 -6.7 0
23:55 1007 29.74 837 24.72 -19 -2.2 81 -21.5 -6.8 0
23:56 1007 29.74 837 24.72 -19 -2.2 81 -21.5 -6.7 0
23:57 1007 29.74 837 24.72 -19 -2.2 81 -21.4 -6.6 0
23:58 1007 29.74 837 24.72 -19 -2.2 81 -21.5 -6.6 0
23:59 1007 29.74 837 24.72 -19 -2.2 81 -21.5 -6.6 0
24:00 1007 29.74 837 24.72 -19 -2.2 81 -21.4 -6.5 0